Time,TemperatureF,DewpointF,PressureIn,WindDirection,WindDirectionDegrees,WindSpeedMPH,WindSpeedGustMPH,Humidity,HourlyPrecipIn,Conditions,Clouds,dailyrainin,SolarRadiationWatts/m^2,SoftwareType,DateUTC
2013-03-10 00:00:00,37.7,37.2,29.71,North,349,4.0,7.0,98,0.09,,OVC029,0.09,0.00,VWS V14.00,2013-03-10 06:00:00,
2013-03-10 00:01:00,37.3,36.8,29.69,East,82,3.0,4.0,98,0.00,,OVC001,0.00,0.00,VWS V14.00,2013-03-10 06:01:00,
2013-03-10 00:02:00,37.3,36.8,29.69,East,82,2.0,4.0,98,0.00,,OVC001,0.00,0.00,VWS V14.00,2013-03-10 06:02:00,
2013-03-10 00:04:00,37.3,36.8,29.68,East,82,3.0,4.0,98,0.00,,OVC001,0.00,0.00,VWS V14.00,2013-03-10 06:04:00,
2013-03-10 00:05:00,37.8,37.3,29.72,NNW,331,2.0,7.0,98,0.09,,OVC029,0.09,0.00,VWS V14.00,2013-03-10 06:05:00,
2013-03-10 00:06:00,37.3,36.8,29.68,ESE,103,1.0,5.0,98,0.00,,OVC001,0.00,0.00,VWS V14.00,2013-03-10 06:06:00,
2013-03-10 00:07:00,37.3,36.8,29.68,ESE,103,1.0,5.0,98,0.00,,OVC001,0.00,0.00,VWS V14.00,2013-03-10 06:07:00,
2013-03-10 00:08:00,37.2,36.7,29.68,ESE,102,1.0,5.0,98,0.00,,OVC001,0.00,0.00,VWS V14.00,2013-03-10 06:08:00,
2013-03-10 00:09:00,37.2,36.7,29.68,ESE,105,1.0,2.0,98,0.00,,OVC001,0.00,0.00,VWS V14.00,2013-03-10 06:09:00,
2013-03-10 00:10:00,37.8,37.3,29.72,North,351,3.0,6.0,98,0.09,,OVC029,0.09,0.00,VWS V14.00,2013-03-10 06:10:00,
2013-03-10 00:11:00,37.1,36.6,29.68,East,90,1.0,5.0,98,0.00,,OVC001,0.00,0.00,VWS V14.00,2013-03-10 06:11:00,
2013-03-10 00:12:00,37.1,36.6,29.68,East,90,2.0,5.0,98,0.00,,OVC001,0.00,0.00,VWS V14.00,2013-03-10 06:12:00,
2013-03-10 00:13:00,37.1,36.6,29.68,East,90,2.0,5.0,98,0.00,,OVC001,0.00,0.00,VWS V14.00,2013-03-10 06:13:00,
2013-03-10 00:15:00,37.2,36.7,29.69,ESE,115,6.0,6.0,98,0.00,,OVC001,0.00,0.00,VWS V14.00,2013-03-10 06:15:00,
2013-03-10 00:16:00,37.2,36.7,29.68,ESE,111,4.0,6.0,98,0.00,,OVC001,0.00,0.00,VWS V14.00,2013-03-10 06:16:00,
2013-03-10 00:17:00,37.2,36.7,29.68,SE,124,5.0,6.0,98,0.00,,OVC001,0.00,0.00,VWS V14.00,2013-03-10 06:17:00,
2013-03-10 00:18:00,37.2,36.7,29.68,SE,132,5.0,6.0,98,0.00,,OVC001,0.00,0.00,VWS V14.00,2013-03-10 06:18:00,
2013-03-10 00:20:00,37.3,36.8,29.68,ESE,123,7.0,7.0,98,0.00,,,0.00,0.00,VWS V14.00,2013-03-10 06:20:00,
2013-03-10 00:21:00,37.4,36.9,29.68,SE,124,2.0,7.0,98,0.00,,,0.00,0.00,VWS V14.00,2013-03-10 06:21:00,
2013-03-10 00:22:00,37.4,36.9,29.68,SE,134,5.0,7.0,98,0.00,,,0.00,0.00,VWS V14.00,2013-03-10 06:22:00,
2013-03-10 00:23:00,37.5,37.0,29.68,SE,132,4.0,7.0,98,0.00,,,0.00,0.00,VWS V14.00,2013-03-10 06:23:00,
2013-03-10 00:25:00,37.5,37.0,29.68,East,92,2.0,5.0,98,0.00,,,0.00,0.00,VWS V14.00,2013-03-10 06:25:00,
2013-03-10 00:26:00,37.5,37.0,29.68,ESE,109,2.0,8.0,98,0.00,,,0.00,0.00,VWS V14.00,2013-03-10 06:26:00,
2013-03-10 00:27:00,37.5,37.0,29.68,ESE,112,4.0,8.0,98,0.00,,,0.00,0.00,VWS V14.00,2013-03-10 06:27:00,
2013-03-10 00:28:00,37.6,37.1,29.68,SE,131,4.0,8.0,98,0.00,,,0.00,0.00,VWS V14.00,2013-03-10 06:28:00,
2013-03-10 00:30:00,37.6,37.1,29.69,SE,127,4.0,7.0,98,0.00,,,0.00,0.00,VWS V14.00,2013-03-10 06:30:00,
2013-03-10 00:31:00,37.7,37.2,29.69,SE,146,4.0,7.0,98,0.00,,,0.00,0.00,VWS V14.00,2013-03-10 06:31:00,
2013-03-10 00:32:00,37.7,37.2,29.69,SE,146,1.0,7.0,98,0.00,,,0.00,0.00,VWS V14.00,2013-03-10 06:32:00,
2013-03-10 00:33:00,37.7,37.2,29.69,SE,146,0.0,7.0,98,0.00,,,0.00,0.00,VWS V14.00,2013-03-10 06:33:00,
2013-03-10 00:35:00,37.7,37.2,29.70,NW,318,8.0,8.0,98,0.00,,,0.00,0.00,VWS V14.00,2013-03-10 06:35:00,
2013-03-10 00:37:00,37.7,37.2,29.71,NW,319,9.0,13.0,98,0.00,,,0.00,0.00,VWS V14.00,2013-03-10 06:37:00,
2013-03-10 00:38:00,37.7,37.2,29.71,NW,306,11.0,15.0,98,0.00,,,0.00,0.00,VWS V14.00,2013-03-10 06:38:00,
2013-03-10 00:40:00,37.6,37.1,29.71,NW,321,7.0,9.0,98,0.01,,,0.01,0.00,VWS V14.00,2013-03-10 06:40:00,
2013-03-10 00:42:00,37.5,37.0,29.71,NNW,333,7.0,11.0,98,0.01,,,0.01,0.00,VWS V14.00,2013-03-10 06:42:00,
2013-03-10 00:43:00,37.5,37.0,29.71,NNW,346,5.0,11.0,98,0.02,,,0.02,0.00,VWS V14.00,2013-03-10 06:43:00,
2013-03-10 00:45:00,37.6,37.1,29.72,NNW,348,6.0,8.0,98,0.10,,OVC029,0.10,0.00,VWS V14.00,2013-03-10 06:45:00,
2013-03-10 00:46:00,37.5,37.0,29.71,North,360,6.0,9.0,98,0.06,,,0.06,0.00,VWS V14.00,2013-03-10 06:46:00,
2013-03-10 00:47:00,37.5,37.0,29.71,North,5,3.0,9.0,98,0.07,,,0.07,0.00,VWS V14.00,2013-03-10 06:47:00,
2013-03-10 00:48:00,37.5,37.0,29.70,NNE,17,2.0,9.0,98,0.07,,,0.07,0.00,VWS V14.00,2013-03-10 06:48:00,
2013-03-10 00:50:00,37.4,36.9,29.69,NNW,347,4.0,12.0,98,0.08,,OVC029,0.11,0.00,VWS V14.00,2013-03-10 06:50:00,
2013-03-10 00:52:00,37.5,37.0,29.70,North,5,3.0,9.0,98,0.08,,,0.08,0.00,VWS V14.00,2013-03-10 06:52:00,
2013-03-10 00:53:00,37.6,37.1,29.71,NNW,333,5.0,9.0,98,0.08,,,0.08,0.00,VWS V14.00,2013-03-10 06:53:00,
2013-03-10 00:54:00,37.6,37.1,29.71,NW,324,4.0,9.0,98,0.08,,,0.08,0.00,VWS V14.00,2013-03-10 06:54:00,
2013-03-10 00:55:00,37.2,36.7,29.69,NNW,346,5.0,13.0,98,0.03,,OVC029,0.11,0.00,VWS V14.00,2013-03-10 06:55:00,
2013-03-10 00:57:00,37.6,37.1,29.70,North,5,4.0,7.0,98,0.08,,,0.08,0.00,VWS V14.00,2013-03-10 06:57:00,
2013-03-10 00:58:00,37.7,37.2,29.71,NNW,331,3.0,7.0,98,0.09,,,0.09,0.00,VWS V14.00,2013-03-10 06:58:00,
2013-03-10 00:59:00,37.7,37.2,29.71,NW,321,5.0,7.0,98,0.09,,,0.09,0.00,VWS V14.00,2013-03-10 06:59:00,
2013-03-10 01:02:00,37.8,37.3,29.71,NW,315,4.0,7.0,98,0.09,,-RA,0.09,0.00,VWS V14.00,2013-03-10 07:02:00,
2013-03-10 01:03:00,37.8,37.3,29.72,NNW,333,4.0,7.0,98,0.09,,-RA,0.09,0.00,VWS V14.00,2013-03-10 07:03:00,
2013-03-10 01:04:00,37.8,37.3,29.72,NNW,331,2.0,2.0,98,0.09,,-RA,0.09,0.00,VWS V14.00,2013-03-10 07:04:00,
2013-03-10 01:07:00,37.8,37.3,29.72,North,355,5.0,5.0,98,0.09,,-RA,0.09,0.00,VWS V14.00,2013-03-10 07:07:00,
2013-03-10 01:08:00,37.8,37.3,29.72,NNW,346,3.0,6.0,98,0.09,,-RA,0.09,0.00,VWS V14.00,2013-03-10 07:08:00,
2013-03-10 01:09:00,37.8,37.3,29.72,North,9,6.0,6.0,98,0.09,,-RA,0.09,0.00,VWS V14.00,2013-03-10 07:09:00,
2013-03-10 01:12:00,37.7,37.2,29.72,NNW,348,5.0,7.0,98,0.09,,-RA,0.09,0.00,VWS V14.00,2013-03-10 07:12:00,
2013-03-10 01:13:00,37.7,37.2,29.72,NNW,332,4.0,7.0,98,0.09,,-RA,0.09,0.00,VWS V14.00,2013-03-10 07:13:00,
2013-03-10 01:14:00,37.7,37.2,29.72,North,5,5.0,5.0,98,0.09,,-RA,0.09,0.00,VWS V14.00,2013-03-10 07:14:00,
2013-03-10 01:17:00,37.7,37.2,29.72,NNW,339,5.0,7.0,98,0.09,,-RA,0.09,0.00,VWS V14.00,2013-03-10 07:17:00,
2013-03-10 01:18:00,37.6,37.1,29.72,NNW,328,5.0,7.0,98,0.09,,-RA,0.09,0.00,VWS V14.00,2013-03-10 07:18:00,
2013-03-10 01:19:00,37.6,37.1,29.72,NNW,333,5.0,7.0,98,0.09,,-RA,0.09,0.00,VWS V14.00,2013-03-10 07:19:00,
2013-03-10 01:20:00,37.6,37.1,29.72,North,5,7.0,7.0,98,0.09,,,0.09,0.00,VWS V14.00,2013-03-10 07:20:00,
2013-03-10 01:22:00,37.6,37.1,29.72,NNW,328,4.0,8.0,98,0.09,,,0.09,0.00,VWS V14.00,2013-03-10 07:22:00,
2013-03-10 01:23:00,37.7,37.2,29.72,NW,313,2.0,8.0,98,0.09,,,0.09,0.00,VWS V14.00,2013-03-10 07:23:00,
2013-03-10 01:24:00,37.7,37.2,29.72,North,350,6.0,8.0,98,0.09,,,0.09,0.00,VWS V14.00,2013-03-10 07:24:00,
2013-03-10 01:25:00,37.7,37.2,29.73,NW,313,2.0,7.0,98,0.09,,,0.09,0.00,VWS V14.00,2013-03-10 07:25:00,
2013-03-10 01:27:00,37.7,37.2,29.73,NW,324,4.0,7.0,98,0.09,,,0.09,0.00,VWS V14.00,2013-03-10 07:27:00,
2013-03-10 01:28:00,37.7,37.2,29.73,North,9,4.0,7.0,98,0.09,,,0.09,0.00,VWS V14.00,2013-03-10 07:28:00,
2013-03-10 01:29:00,37.7,37.2,29.73,NNW,336,4.0,7.0,98,0.09,,,0.09,0.00,VWS V14.00,2013-03-10 07:29:00,
2013-03-10 01:30:00,37.7,37.2,29.73,NW,323,3.0,6.0,98,0.09,,,0.09,0.00,VWS V14.00,2013-03-10 07:30:00,
2013-03-10 01:32:00,37.7,37.2,29.73,NNW,335,5.0,6.0,98,0.09,,,0.09,0.00,VWS V14.00,2013-03-10 07:32:00,
2013-03-10 01:33:00,37.7,37.2,29.73,North,355,5.0,8.0,98,0.09,,,0.09,0.00,VWS V14.00,2013-03-10 07:33:00,
2013-03-10 01:34:00,37.7,37.2,29.73,North,5,2.0,8.0,98,0.09,,,0.09,0.00,VWS V14.00,2013-03-10 07:34:00,
2013-03-10 01:35:00,37.7,37.2,29.72,NNE,20,5.0,8.0,98,0.09,,,0.09,0.00,VWS V14.00,2013-03-10 07:35:00,
2013-03-10 01:38:00,37.7,37.2,29.72,NNE,25,5.0,8.0,98,0.09,,,0.09,0.00,VWS V14.00,2013-03-10 07:38:00,
2013-03-10 01:39:00,37.7,37.2,29.72,NE,35,7.0,8.0,98,0.09,,,0.09,0.00,VWS V14.00,2013-03-10 07:39:00,
2013-03-10 01:40:00,37.7,37.2,29.72,North,9,5.0,7.0,98,0.09,,RA,0.09,0.00,VWS V14.00,2013-03-10 07:40:00,
2013-03-10 01:43:00,37.6,37.1,29.72,North,360,7.0,8.0,98,0.10,,RA,0.10,0.00,VWS V14.00,2013-03-10 07:43:00,
2013-03-10 01:44:00,37.6,37.1,29.72,NNW,348,6.0,8.0,98,0.10,,RA,0.10,0.00,VWS V14.00,2013-03-10 07:44:00,
2013-03-10 01:45:00,37.5,37.0,29.71,North,360,5.0,9.0,98,0.08,,RA,0.11,0.00,VWS V14.00,2013-03-10 07:45:00,
2013-03-10 01:48:00,37.5,37.0,29.69,North,5,5.0,12.0,98,0.08,,RA,0.11,0.00,VWS V14.00,2013-03-10 07:48:00,
2013-03-10 01:49:00,37.4,36.9,29.69,NNE,31,6.0,12.0,98,0.08,,RA,0.11,0.00,VWS V14.00,2013-03-10 07:49:00,
2013-03-10 01:50:00,37.4,36.9,29.69,North,355,5.0,10.0,98,0.03,,RA,0.11,0.00,VWS V14.00,2013-03-10 07:50:00,
2013-03-10 01:53:00,37.2,36.7,29.69,NNW,348,7.0,13.0,98,0.03,,RA,0.11,0.00,VWS V14.00,2013-03-10 07:53:00,
2013-03-10 01:54:00,37.2,36.7,29.70,NNW,347,4.0,5.0,98,0.03,,RA,0.11,0.00,VWS V14.00,2013-03-10 07:54:00,
2013-03-10 01:55:00,37.2,36.7,29.70,NNW,348,3.0,7.0,98,0.04,,RA,0.12,0.00,VWS V14.00,2013-03-10 07:55:00,
2013-03-10 01:58:00,37.1,36.6,29.71,NNW,327,4.0,10.0,98,0.04,,RA,0.12,0.00,VWS V14.00,2013-03-10 07:58:00,
2013-03-10 01:59:00,37.1,36.6,29.71,NNW,342,2.0,3.0,98,0.00,,RA,0.12,0.00,VWS V14.00,2013-03-10 07:59:00,
2013-03-10 03:00:00,37.1,36.6,29.71,NNE,27,2.0,10.0,98,0.04,,OVC029,0.12,0.00,VWS V14.00,2013-03-10 08:00:00,
2013-03-10 03:01:00,37.1,36.6,29.71,North,350,4.0,7.0,98,0.03,,-RA,0.12,0.00,VWS V14.00,2013-03-10 08:01:00,
2013-03-10 03:04:00,37.1,36.6,29.70,NNW,344,4.0,4.0,98,0.03,,-RA,0.12,0.00,VWS V14.00,2013-03-10 08:04:00,
2013-03-10 03:05:00,37.1,36.6,29.70,North,9,5.0,6.0,98,0.03,,-RA,0.12,0.00,VWS V14.00,2013-03-10 08:05:00,
2013-03-10 03:06:00,37.1,36.6,29.70,North,360,4.0,6.0,98,0.03,,-RA,0.12,0.00,VWS V14.00,2013-03-10 08:06:00,
2013-03-10 03:09:00,37.0,36.5,29.70,NNE,19,6.0,6.0,98,0.03,,-RA,0.12,0.00,VWS V14.00,2013-03-10 08:09:00,
2013-03-10 03:10:00,37.0,36.5,29.70,ENE,59,7.0,10.0,98,0.03,,-RA,0.12,0.00,VWS V14.00,2013-03-10 08:10:00,
2013-03-10 03:11:00,37.0,36.5,29.70,North,9,12.0,12.0,98,0.03,,-RA,0.12,0.00,VWS V14.00,2013-03-10 08:11:00,
2013-03-10 03:14:00,36.9,36.4,29.69,North,9,4.0,7.0,98,0.03,,-RA,0.12,0.00,VWS V14.00,2013-03-10 08:14:00,
2013-03-10 03:15:00,36.9,36.4,29.69,NNW,327,5.0,12.0,98,0.03,,-RA,0.12,0.00,VWS V14.00,2013-03-10 08:15:00,
2013-03-10 03:16:00,36.9,36.4,29.69,North,5,6.0,12.0,98,0.03,,-RA,0.12,0.00,VWS V14.00,2013-03-10 08:16:00,
2013-03-10 03:19:00,36.9,36.4,29.69,North,355,8.0,8.0,98,0.03,,-RA,0.12,0.00,VWS V14.00,2013-03-10 08:19:00,
2013-03-10 03:20:00,36.8,36.3,29.69,North,355,7.0,11.0,98,0.03,,OVC005,0.12,0.00,VWS V14.00,2013-03-10 08:20:00,
2013-03-10 03:21:00,36.8,36.3,29.69,NNW,347,6.0,11.0,98,0.03,,OVC005,0.12,0.00,VWS V14.00,2013-03-10 08:21:00,
2013-03-10 03:24:00,36.8,36.3,29.69,NNW,344,4.0,5.0,98,0.03,,OVC005,0.12,0.00,VWS V14.00,2013-03-10 08:24:00,
2013-03-10 03:25:00,36.8,36.3,29.69,NNW,338,5.0,11.0,98,0.03,,OVC029,0.12,0.00,VWS V14.00,2013-03-10 08:25:00,
2013-03-10 03:26:00,36.8,36.3,29.69,North,360,8.0,10.0,98,0.03,,OVC005,0.12,0.00,VWS V14.00,2013-03-10 08:26:00,
2013-03-10 03:29:00,36.7,36.2,29.68,North,355,5.0,8.0,98,0.03,,OVC005,0.12,0.00,VWS V14.00,2013-03-10 08:29:00,
2013-03-10 03:30:00,36.7,36.2,29.68,NNE,22,5.0,12.0,98,0.03,,OVC029,0.12,0.00,VWS V14.00,2013-03-10 08:30:00,
2013-03-10 03:31:00,36.7,36.2,29.68,NNW,340,5.0,8.0,98,0.03,,OVC005,0.12,0.00,VWS V14.00,2013-03-10 08:31:00,
2013-03-10 03:32:00,36.6,36.1,29.68,NNW,340,8.0,10.0,98,0.03,,OVC005,0.12,0.00,VWS V14.00,2013-03-10 08:32:00,
2013-03-10 03:34:00,36.6,36.1,29.68,NNW,344,5.0,8.0,98,0.03,,OVC005,0.12,0.00,VWS V14.00,2013-03-10 08:34:00,
2013-03-10 03:35:00,36.6,36.1,29.68,NW,320,5.0,11.0,98,0.03,,OVC029,0.12,0.00,VWS V14.00,2013-03-10 08:35:00,
2013-03-10 03:36:00,36.5,36.0,29.68,NNW,344,7.0,11.0,98,0.03,,OVC005,0.12,0.00,VWS V14.00,2013-03-10 08:36:00,
2013-03-10 03:37:00,36.5,36.0,29.67,NNE,15,12.0,12.0,98,0.03,,OVC005,0.12,0.00,VWS V14.00,2013-03-10 08:37:00,
2013-03-10 03:39:00,36.5,36.0,29.67,NNE,17,10.0,14.0,98,0.03,,OVC005,0.12,0.00,VWS V14.00,2013-03-10 08:39:00,
2013-03-10 03:40:00,36.5,36.0,29.67,NE,37,8.0,12.0,98,0.03,,OVC029,0.12,0.00,VWS V14.00,2013-03-10 08:40:00,
2013-03-10 03:41:00,36.4,35.9,29.67,North,5,10.0,14.0,98,0.03,,,0.12,0.00,VWS V14.00,2013-03-10 08:41:00,
2013-03-10 03:42:00,36.4,35.9,29.67,NNE,19,5.0,14.0,98,0.03,,,0.12,0.00,VWS V14.00,2013-03-10 08:42:00,
2013-03-10 03:44:00,36.3,35.8,29.67,NNE,27,6.0,10.0,98,0.02,,,0.12,0.00,VWS V14.00,2013-03-10 08:44:00,
2013-03-10 03:45:00,36.3,35.8,29.67,NNW,347,9.0,10.0,98,0.02,,,0.12,0.00,VWS V14.00,2013-03-10 08:45:00,
2013-03-10 03:46:00,36.2,35.7,29.67,North,349,9.0,12.0,98,0.02,,,0.12,0.00,VWS V14.00,2013-03-10 08:46:00,
2013-03-10 03:48:00,36.2,35.7,29.67,NNW,329,5.0,13.0,98,0.02,,,0.12,0.00,VWS V14.00,2013-03-10 08:48:00,
2013-03-10 03:50:00,36.1,35.6,29.67,NNW,344,4.0,14.0,98,0.01,,,0.12,0.00,VWS V14.00,2013-03-10 08:50:00,
2013-03-10 03:51:00,36.1,35.6,29.68,NNW,334,3.0,14.0,98,0.01,,,0.12,0.00,VWS V14.00,2013-03-10 08:51:00,
2013-03-10 03:53:00,36.1,35.6,29.68,NNW,336,12.0,15.0,98,0.01,,,0.12,0.00,VWS V14.00,2013-03-10 08:53:00,
2013-03-10 03:55:00,36.0,35.5,29.68,NNW,336,5.0,14.0,98,0.01,,,0.12,0.00,VWS V14.00,2013-03-10 08:55:00,
2013-03-10 03:56:00,36.0,35.5,29.68,NNW,348,6.0,14.0,98,0.01,,,0.12,0.00,VWS V14.00,2013-03-10 08:56:00,
2013-03-10 03:58:00,35.9,35.4,29.68,NNW,329,10.0,14.0,98,0.01,,,0.12,0.00,VWS V14.00,2013-03-10 08:58:00,
2013-03-10 04:00:00,35.9,35.4,29.69,NW,323,10.0,10.0,98,0.00,,,0.12,0.00,VWS V14.00,2013-03-10 09:00:00,
2013-03-10 04:02:00,35.9,35.4,29.69,NNW,333,7.0,10.0,98,0.00,,,0.12,0.00,VWS V14.00,2013-03-10 09:02:00,
2013-03-10 04:03:00,35.8,35.3,29.69,NNW,329,5.0,10.0,98,0.00,,,0.12,0.00,VWS V14.00,2013-03-10 09:03:00,
2013-03-10 04:05:00,35.7,35.2,29.69,NW,321,7.0,12.0,98,0.00,,,0.12,0.00,VWS V14.00,2013-03-10 09:05:00,
2013-03-10 04:07:00,35.7,35.2,29.69,NW,318,7.0,12.0,98,0.00,,,0.12,0.00,VWS V14.00,2013-03-10 09:07:00,
2013-03-10 04:08:00,35.7,35.2,29.69,NNW,340,7.0,12.0,98,0.00,,,0.12,0.00,VWS V14.00,2013-03-10 09:08:00,
2013-03-10 04:10:00,35.6,35.1,29.70,NNW,335,8.0,8.0,98,0.00,,,0.12,0.00,VWS V14.00,2013-03-10 09:10:00,
2013-03-10 04:12:00,35.6,35.1,29.70,NNW,333,9.0,11.0,98,0.00,,,0.12,0.00,VWS V14.00,2013-03-10 09:12:00,
2013-03-10 04:13:00,35.5,35.0,29.69,NNE,19,9.0,11.0,98,0.00,,,0.12,0.00,VWS V14.00,2013-03-10 09:13:00,
2013-03-10 04:15:00,35.5,35.0,29.69,NNW,345,8.0,14.0,98,0.00,,,0.12,0.00,VWS V14.00,2013-03-10 09:15:00,
2013-03-10 04:16:00,35.5,35.0,29.69,NW,326,6.0,14.0,98,0.00,,,0.12,0.00,VWS V14.00,2013-03-10 09:16:00,
2013-03-10 04:17:00,35.5,35.0,29.69,NNW,345,9.0,14.0,98,0.00,,,0.12,0.00,VWS V14.00,2013-03-10 09:17:00,
2013-03-10 04:18:00,35.5,35.0,29.69,ESE,102,8.0,14.0,98,0.00,,,0.12,0.00,VWS V14.00,2013-03-10 09:18:00,
2013-03-10 04:20:00,35.5,35.0,29.69,North,355,11.0,14.0,98,0.00,,OVC029,0.12,0.00,VWS V14.00,2013-03-10 09:20:00,
2013-03-10 04:21:00,35.4,34.9,29.68,NNW,346,12.0,12.0,98,0.00,,,0.12,0.00,VWS V14.00,2013-03-10 09:21:00,
2013-03-10 04:22:00,35.4,34.9,29.68,North,10,6.0,14.0,98,0.00,,,0.12,0.00,VWS V14.00,2013-03-10 09:22:00,
2013-03-10 04:24:00,35.4,34.9,29.67,NW,325,4.0,14.0,98,0.00,,,0.12,0.00,VWS V14.00,2013-03-10 09:24:00,
2013-03-10 04:25:00,35.4,34.9,29.67,NW,325,4.0,14.0,98,0.00,,OVC029,0.12,0.00,VWS V14.00,2013-03-10 09:25:00,
2013-03-10 04:26:00,35.3,34.8,29.67,NE,35,5.0,14.0,98,0.00,,,0.12,0.00,VWS V14.00,2013-03-10 09:26:00,
2013-03-10 04:27:00,35.3,34.8,29.67,NNW,340,13.0,14.0,98,0.00,,,0.12,0.00,VWS V14.00,2013-03-10 09:27:00,
2013-03-10 04:29:00,35.2,34.7,29.67,North,11,11.0,14.0,98,0.00,,,0.12,0.00,VWS V14.00,2013-03-10 09:29:00,
2013-03-10 04:30:00,35.2,34.7,29.67,North,11,11.0,14.0,98,0.00,,OVC029,0.12,0.00,VWS V14.00,2013-03-10 09:30:00,
2013-03-10 04:31:00,35.2,34.7,29.68,NW,323,11.0,14.0,98,0.00,,,0.12,0.00,VWS V14.00,2013-03-10 09:31:00,
2013-03-10 04:32:00,35.2,34.7,29.68,North,360,11.0,14.0,98,0.00,,,0.12,0.00,VWS V14.00,2013-03-10 09:32:00,
2013-03-10 04:34:00,35.2,34.7,29.68,NNE,32,11.0,14.0,98,0.00,,,0.12,0.00,VWS V14.00,2013-03-10 09:34:00,
2013-03-10 04:35:00,35.2,34.7,29.68,NNE,32,11.0,14.0,98,0.00,,OVC029,0.12,0.00,VWS V14.00,2013-03-10 09:35:00,
2013-03-10 04:36:00,35.1,34.6,29.68,North,355,9.0,14.0,98,0.00,,,0.12,0.00,VWS V14.00,2013-03-10 09:36:00,
2013-03-10 04:37:00,35.1,34.6,29.68,NW,311,6.0,14.0,98,0.00,,,0.12,0.00,VWS V14.00,2013-03-10 09:37:00,
2013-03-10 04:39:00,35.1,34.6,29.68,North,355,9.0,9.0,98,0.00,,,0.12,0.00,VWS V14.00,2013-03-10 09:39:00,
2013-03-10 04:40:00,35.1,34.6,29.68,North,355,9.0,14.0,98,0.00,,OVC029,0.12,0.00,VWS V14.00,2013-03-10 09:40:00,
2013-03-10 04:41:00,35.1,34.6,29.69,NNW,331,6.0,14.0,98,0.00,,,0.12,0.00,VWS V14.00,2013-03-10 09:41:00,
2013-03-10 04:42:00,35.1,34.6,29.69,NNW,336,5.0,14.0,98,0.00,,,0.12,0.00,VWS V14.00,2013-03-10 09:42:00,
2013-03-10 04:43:00,35.1,34.6,29.69,NNW,343,6.0,14.0,98,0.00,,,0.12,0.00,VWS V14.00,2013-03-10 09:43:00,
2013-03-10 04:44:00,35.1,34.6,29.69,North,5,8.0,14.0,98,0.00,,,0.12,0.00,VWS V14.00,2013-03-10 09:44:00,
2013-03-10 04:45:00,35.1,34.6,29.69,North,5,8.0,14.0,98,0.00,,OVC029,0.12,0.00,VWS V14.00,2013-03-10 09:45:00,
2013-03-10 04:46:00,35.1,34.6,29.69,NNW,343,10.0,13.0,98,0.00,,,0.12,0.00,VWS V14.00,2013-03-10 09:46:00,
2013-03-10 04:47:00,35.1,34.6,29.69,NNW,337,8.0,13.0,98,0.00,,,0.12,0.00,VWS V14.00,2013-03-10 09:47:00,
2013-03-10 04:48:00,35.1,34.6,29.69,NNW,340,11.0,13.0,98,0.00,,,0.12,0.00,VWS V14.00,2013-03-10 09:48:00,
2013-03-10 04:49:00,35.0,34.5,29.69,NNW,347,11.0,16.0,98,0.00,,,0.12,0.00,VWS V14.00,2013-03-10 09:49:00,
2013-03-10 04:50:00,35.1,34.6,29.69,North,360,16.0,16.0,98,0.00,,OVC029,0.12,0.00,VWS V14.00,2013-03-10 09:50:00,
2013-03-10 04:51:00,35.1,34.6,29.69,North,355,7.0,16.0,98,0.00,,,0.12,0.00,VWS V14.00,2013-03-10 09:51:00,
2013-03-10 04:52:00,35.0,34.5,29.69,NNW,342,8.0,16.0,98,0.00,,,0.12,0.00,VWS V14.00,2013-03-10 09:52:00,
2013-03-10 04:53:00,35.1,34.6,29.70,NW,324,6.0,16.0,98,0.00,,,0.12,0.00,VWS V14.00,2013-03-10 09:53:00,
2013-03-10 04:54:00,35.1,34.6,29.70,NNW,327,15.0,16.0,98,0.00,,,0.12,0.00,VWS V14.00,2013-03-10 09:54:00,
2013-03-10 04:55:00,35.1,34.6,29.70,NNW,329,8.0,16.0,98,0.00,,OVC029,0.12,0.00,VWS V14.00,2013-03-10 09:55:00,
2013-03-10 04:56:00,35.1,34.6,29.70,NNW,328,7.0,17.0,98,0.00,,,0.12,0.00,VWS V14.00,2013-03-10 09:56:00,
2013-03-10 04:57:00,35.0,34.5,29.71,North,360,14.0,17.0,98,0.00,,,0.12,0.00,VWS V14.00,2013-03-10 09:57:00,
2013-03-10 04:58:00,35.0,34.5,29.71,NW,307,6.0,17.0,98,0.00,,,0.12,0.00,VWS V14.00,2013-03-10 09:58:00,
2013-03-10 05:00:00,35.0,34.5,29.71,North,360,9.0,10.0,98,0.00,,,0.12,0.00,VWS V14.00,2013-03-10 10:00:00,
2013-03-10 05:01:00,35.0,34.5,29.72,NNW,346,5.0,13.0,98,0.00,,,0.12,0.00,VWS V14.00,2013-03-10 10:01:00,
2013-03-10 05:03:00,35.0,34.5,29.72,NW,309,7.0,13.0,98,0.00,,,0.12,0.00,VWS V14.00,2013-03-10 10:03:00,
2013-03-10 05:05:00,35.0,34.5,29.72,NNW,329,6.0,11.0,98,0.00,,,0.12,0.00,VWS V14.00,2013-03-10 10:05:00,
2013-03-10 05:06:00,35.0,34.5,29.72,North,355,14.0,16.0,98,0.00,,,0.12,0.00,VWS V14.00,2013-03-10 10:06:00,
2013-03-10 05:08:00,35.0,34.5,29.72,NW,325,7.0,16.0,98,0.00,,,0.12,0.00,VWS V14.00,2013-03-10 10:08:00,
2013-03-10 05:10:00,35.0,34.5,29.72,North,5,7.0,13.0,98,0.00,,,0.12,0.00,VWS V14.00,2013-03-10 10:10:00,
2013-03-10 05:11:00,35.0,34.5,29.73,NNW,330,6.0,13.0,98,0.00,,,0.12,0.00,VWS V14.00,2013-03-10 10:11:00,
2013-03-10 05:13:00,35.0,34.5,29.73,NNW,348,8.0,13.0,98,0.00,,,0.12,0.00,VWS V14.00,2013-03-10 10:13:00,
2013-03-10 05:15:00,35.0,34.5,29.73,NNW,330,7.0,10.0,98,0.00,,,0.12,0.00,VWS V14.00,2013-03-10 10:15:00,
2013-03-10 05:16:00,35.1,34.6,29.73,NNW,327,10.0,14.0,98,0.00,,,0.12,0.00,VWS V14.00,2013-03-10 10:16:00,
2013-03-10 05:18:00,35.0,34.5,29.73,NW,323,6.0,14.0,98,0.00,,,0.12,0.00,VWS V14.00,2013-03-10 10:18:00,
2013-03-10 05:19:00,35.0,34.5,29.73,NNW,347,5.0,14.0,98,0.00,,,0.12,0.00,VWS V14.00,2013-03-10 10:19:00,
2013-03-10 05:20:00,35.0,34.5,29.73,NNW,345,8.0,14.0,98,0.00,,OVC029,0.12,0.00,VWS V14.00,2013-03-10 10:20:00,
2013-03-10 05:21:00,35.0,34.5,29.72,North,350,11.0,18.0,98,0.00,,,0.12,0.00,VWS V14.00,2013-03-10 10:21:00,
2013-03-10 05:22:00,35.0,34.5,29.72,NW,321,8.0,18.0,98,0.00,,,0.12,0.00,VWS V14.00,2013-03-10 10:22:00,
2013-03-10 05:23:00,35.0,34.5,29.72,NNW,346,13.0,18.0,98,0.00,,,0.12,0.00,VWS V14.00,2013-03-10 10:23:00,
2013-03-10 05:24:00,35.0,34.5,29.72,NNW,342,8.0,18.0,98,0.00,,,0.12,0.00,VWS V14.00,2013-03-10 10:24:00,
2013-03-10 05:25:00,35.0,34.5,29.72,NNW,342,8.0,18.0,98,0.00,,OVC029,0.12,0.00,VWS V14.00,2013-03-10 10:25:00,
2013-03-10 05:26:00,35.0,34.5,29.72,North,360,5.0,15.0,98,0.00,,,0.12,0.00,VWS V14.00,2013-03-10 10:26:00,
2013-03-10 05:27:00,35.0,34.5,29.72,NNW,347,13.0,16.0,98,0.00,,,0.12,0.00,VWS V14.00,2013-03-10 10:27:00,
2013-03-10 05:29:00,35.0,34.5,29.72,North,355,12.0,17.0,98,0.00,,,0.12,0.00,VWS V14.00,2013-03-10 10:29:00,
2013-03-10 05:30:00,35.0,34.5,29.72,North,350,14.0,17.0,98,0.00,,OVC029,0.12,0.00,VWS V14.00,2013-03-10 10:30:00,
2013-03-10 05:31:00,35.0,34.5,29.72,NW,315,10.0,14.0,98,0.00,,,0.12,0.00,VWS V14.00,2013-03-10 10:31:00,
2013-03-10 05:32:00,35.0,34.5,29.72,North,355,7.0,14.0,98,0.00,,,0.12,0.00,VWS V14.00,2013-03-10 10:32:00,
2013-03-10 05:34:00,35.0,34.5,29.72,NNW,345,13.0,18.0,98,0.00,,,0.12,0.00,VWS V14.00,2013-03-10 10:34:00,
2013-03-10 05:35:00,35.0,34.5,29.72,North,360,13.0,18.0,98,0.00,,OVC029,0.12,0.00,VWS V14.00,2013-03-10 10:35:00,
2013-03-10 05:36:00,35.0,34.5,29.72,NNW,345,11.0,17.0,98,0.00,,,0.12,0.00,VWS V14.00,2013-03-10 10:36:00,
2013-03-10 05:37:00,35.0,34.5,29.71,North,349,8.0,17.0,98,0.00,,,0.12,0.00,VWS V14.00,2013-03-10 10:37:00,
2013-03-10 05:39:00,34.9,34.4,29.71,North,349,7.0,17.0,98,0.00,,,0.12,0.00,VWS V14.00,2013-03-10 10:39:00,
2013-03-10 05:40:00,34.9,34.4,29.71,North,349,7.0,17.0,98,0.00,,OVC029,0.12,0.00,VWS V14.00,2013-03-10 10:40:00,
2013-03-10 05:42:00,34.9,34.4,29.72,WNW,290,10.0,17.0,98,0.00,,,0.12,0.00,VWS V14.00,2013-03-10 10:42:00,
2013-03-10 05:44:00,34.9,34.4,29.72,NNW,336,17.0,17.0,98,0.00,,,0.12,0.00,VWS V14.00,2013-03-10 10:44:00,
2013-03-10 05:45:00,34.9,34.4,29.72,NNW,336,17.0,17.0,98,0.00,,OVC029,0.12,0.00,VWS V14.00,2013-03-10 10:45:00,
2013-03-10 05:47:00,34.8,34.3,29.71,NNE,14,6.0,18.0,98,0.00,,,0.12,0.00,VWS V14.00,2013-03-10 10:47:00,
2013-03-10 05:49:00,34.8,34.3,29.71,NNW,331,15.0,15.0,98,0.00,,,0.12,0.00,VWS V14.00,2013-03-10 10:49:00,
2013-03-10 05:50:00,34.8,34.3,29.71,NNW,332,13.0,18.0,98,0.00,,OVC029,0.12,0.00,VWS V14.00,2013-03-10 10:50:00,
2013-03-10 05:52:00,34.8,34.0,29.70,North,5,10.0,17.0,97,0.00,,,0.12,0.00,VWS V14.00,2013-03-10 10:52:00,
2013-03-10 05:53:00,34.8,34.0,29.70,North,350,11.0,17.0,97,0.00,,,0.12,0.00,VWS V14.00,2013-03-10 10:53:00,
2013-03-10 05:54:00,34.8,34.0,29.70,North,351,12.0,14.0,97,0.00,,,0.12,0.00,VWS V14.00,2013-03-10 10:54:00,
2013-03-10 05:55:00,34.8,34.0,29.70,North,355,10.0,17.0,97,0.00,,OVC029,0.12,0.00,VWS V14.00,2013-03-10 10:55:00,
2013-03-10 05:58:00,34.8,34.0,29.70,NE,42,14.0,19.0,97,0.00,,,0.12,0.00,VWS V14.00,2013-03-10 10:58:00,
2013-03-10 05:59:00,34.8,34.0,29.69,North,9,12.0,12.0,97,0.00,,,0.12,0.00,VWS V14.00,2013-03-10 10:59:00,
2013-03-10 06:00:00,34.8,34.0,29.69,NW,318,8.0,14.0,97,0.00,,,0.12,0.00,VWS V14.00,2013-03-10 11:00:00,
2013-03-10 06:03:00,34.7,33.9,29.69,NNW,339,8.0,15.0,97,0.00,,,0.12,0.00,VWS V14.00,2013-03-10 11:03:00,
2013-03-10 06:04:00,34.7,33.9,29.70,North,9,9.0,17.0,97,0.00,,,0.12,0.00,VWS V14.00,2013-03-10 11:04:00,
2013-03-10 06:05:00,34.8,34.0,29.70,North,351,7.0,17.0,97,0.00,,,0.12,0.00,VWS V14.00,2013-03-10 11:05:00,
2013-03-10 06:08:00,34.7,33.9,29.71,North,360,7.0,17.0,97,0.00,,,0.12,0.00,VWS V14.00,2013-03-10 11:08:00,
2013-03-10 06:09:00,34.7,33.9,29.71,NNW,341,12.0,13.0,97,0.00,,,0.12,0.00,VWS V14.00,2013-03-10 11:09:00,
2013-03-10 06:10:00,34.7,33.9,29.71,NNE,26,12.0,14.0,97,0.00,,,0.12,0.00,VWS V14.00,2013-03-10 11:10:00,
2013-03-10 06:13:00,34.7,33.9,29.71,NNE,30,13.0,16.0,97,0.00,,,0.12,0.00,VWS V14.00,2013-03-10 11:13:00,
2013-03-10 06:14:00,34.7,33.9,29.71,NNE,26,10.0,17.0,97,0.01,,,0.13,0.00,VWS V14.00,2013-03-10 11:14:00,
2013-03-10 06:15:00,34.7,33.9,29.71,NNW,344,11.0,13.0,97,0.01,,,0.13,0.00,VWS V14.00,2013-03-10 11:15:00,
2013-03-10 06:18:00,34.7,33.9,29.71,NNE,22,14.0,16.0,97,0.01,,,0.13,0.00,VWS V14.00,2013-03-10 11:18:00,
2013-03-10 06:19:00,34.7,33.9,29.71,North,360,9.0,10.0,97,0.01,,,0.13,0.00,VWS V14.00,2013-03-10 11:19:00,
2013-03-10 06:20:00,34.7,33.9,29.72,North,5,9.0,15.0,97,0.01,,,0.13,0.00,VWS V14.00,2013-03-10 11:20:00,
2013-03-10 06:23:00,34.7,33.9,29.72,North,10,11.0,18.0,97,0.01,,,0.13,0.00,VWS V14.00,2013-03-10 11:23:00,
2013-03-10 06:24:00,34.7,33.9,29.72,NNW,344,10.0,11.0,97,0.01,,,0.13,0.00,VWS V14.00,2013-03-10 11:24:00,
2013-03-10 06:25:00,34.7,33.9,29.73,North,350,11.0,12.0,97,0.01,,,0.13,0.00,VWS V14.00,2013-03-10 11:25:00,
2013-03-10 06:28:00,34.7,33.9,29.73,North,355,7.0,16.0,97,0.01,,,0.13,0.00,VWS V14.00,2013-03-10 11:28:00,
2013-03-10 06:30:00,34.7,33.9,29.74,NNW,346,4.0,17.0,97,0.01,,,0.13,0.00,VWS V14.00,2013-03-10 11:30:00,
2013-03-10 06:33:00,34.7,33.9,29.74,NNW,333,11.0,17.0,97,0.01,,,0.13,0.00,VWS V14.00,2013-03-10 11:33:00,
2013-03-10 06:35:00,34.7,33.9,29.75,NNW,341,11.0,11.0,97,0.01,,,0.13,0.00,VWS V14.00,2013-03-10 11:35:00,
2013-03-10 06:39:00,34.7,33.9,29.75,NNW,340,6.0,17.0,97,0.01,,,0.13,0.00,VWS V14.00,2013-03-10 11:39:00,
2013-03-10 06:40:00,34.7,33.9,29.76,North,5,6.0,8.0,97,0.01,,,0.13,0.00,VWS V14.00,2013-03-10 11:40:00,
2013-03-10 06:44:00,34.7,33.9,29.76,NNW,346,9.0,14.0,97,0.01,,,0.13,0.00,VWS V14.00,2013-03-10 11:44:00,
2013-03-10 06:45:00,34.8,34.0,29.75,NNW,344,8.0,12.0,97,0.01,,,0.13,0.00,VWS V14.00,2013-03-10 11:45:00,
2013-03-10 06:46:00,34.8,34.0,29.75,NNW,342,7.0,12.0,97,0.01,,,0.13,0.00,VWS V14.00,2013-03-10 11:46:00,
2013-03-10 06:49:00,34.7,33.9,29.75,NW,309,9.0,14.0,97,0.01,,,0.13,0.00,VWS V14.00,2013-03-10 11:49:00,
2013-03-10 06:50:00,34.7,33.9,29.75,NNE,28,7.0,12.0,97,0.01,,,0.13,0.00,VWS V14.00,2013-03-10 11:50:00,
2013-03-10 06:51:00,34.7,33.9,29.75,North,351,13.0,13.0,97,0.01,,,0.13,0.00,VWS V14.00,2013-03-10 11:51:00,
2013-03-10 06:54:00,34.7,33.9,29.75,NNW,327,10.0,13.0,97,0.01,,,0.13,0.00,VWS V14.00,2013-03-10 11:54:00,
2013-03-10 06:55:00,34.7,33.9,29.75,North,360,13.0,15.0,97,0.01,,OVC029,0.13,0.00,VWS V14.00,2013-03-10 11:55:00,
2013-03-10 06:56:00,34.7,33.9,29.75,NW,326,14.0,14.0,97,0.01,,,0.13,0.00,VWS V14.00,2013-03-10 11:56:00,
2013-03-10 06:59:00,34.7,33.9,29.74,North,349,12.0,14.0,97,0.01,,,0.13,0.00,VWS V14.00,2013-03-10 11:59:00,
2013-03-10 07:00:00,34.7,33.9,29.74,NNW,347,11.0,16.0,97,0.01,,OVC029,0.13,0.00,VWS V14.00,2013-03-10 12:00:00,
2013-03-10 07:01:00,34.7,33.9,29.74,NNW,345,15.0,16.0,97,0.01,,,0.13,0.00,VWS V14.00,2013-03-10 12:01:00,
2013-03-10 07:02:00,34.7,33.9,29.75,NNW,344,9.0,16.0,97,0.01,,,0.13,0.00,VWS V14.00,2013-03-10 12:02:00,
2013-03-10 07:04:00,34.7,33.9,29.75,North,355,8.0,16.0,97,0.01,,,0.13,0.00,VWS V14.00,2013-03-10 12:04:00,
2013-03-10 07:05:00,34.8,34.0,29.75,North,355,16.0,16.0,97,0.01,,OVC029,0.13,0.00,VWS V14.00,2013-03-10 12:05:00,
2013-03-10 07:06:00,34.7,33.9,29.75,North,360,8.0,16.0,97,0.01,,,0.13,0.00,VWS V14.00,2013-03-10 12:06:00,
2013-03-10 07:07:00,34.7,33.9,29.75,North,360,8.0,16.0,97,0.01,,,0.13,0.00,VWS V14.00,2013-03-10 12:07:00,
2013-03-10 07:09:00,34.7,33.9,29.74,NNW,327,7.0,8.0,97,0.01,,,0.13,0.00,VWS V14.00,2013-03-10 12:09:00,
2013-03-10 07:10:00,34.7,33.9,29.75,NE,37,6.0,16.0,97,0.01,,OVC029,0.13,0.00,VWS V14.00,2013-03-10 12:10:00,
2013-03-10 07:11:00,34.7,33.9,29.74,North,9,12.0,13.0,97,0.01,,,0.13,0.00,VWS V14.00,2013-03-10 12:11:00,
2013-03-10 07:13:00,34.7,33.9,29.74,North,350,12.0,14.0,97,0.01,,,0.13,0.00,VWS V14.00,2013-03-10 12:13:00,
2013-03-10 07:14:00,34.7,33.9,29.74,NNE,13,7.0,17.0,97,0.00,,,0.13,0.00,VWS V14.00,2013-03-10 12:14:00,
2013-03-10 07:15:00,34.7,33.9,29.74,North,360,16.0,16.0,97,0.01,,OVC029,0.13,0.00,VWS V14.00,2013-03-10 12:15:00,
2013-03-10 07:16:00,34.7,33.9,29.74,North,360,8.0,18.0,97,0.00,,,0.13,0.00,VWS V14.00,2013-03-10 12:16:00,
2013-03-10 07:17:00,34.7,33.9,29.74,NE,40,7.0,18.0,97,0.00,,,0.13,0.00,VWS V14.00,2013-03-10 12:17:00,
2013-03-10 07:18:00,34.7,33.9,29.74,NNE,13,4.0,18.0,97,0.00,,,0.13,0.00,VWS V14.00,2013-03-10 12:18:00,
2013-03-10 07:19:00,34.7,33.9,29.74,North,360,11.0,14.0,97,0.00,,,0.13,0.00,VWS V14.00,2013-03-10 12:19:00,
2013-03-10 07:20:00,34.7,33.9,29.74,North,360,10.0,18.0,97,0.00,,OVC029,0.13,0.00,VWS V14.00,2013-03-10 12:20:00,
2013-03-10 07:22:00,34.7,33.9,29.75,NNE,24,10.0,14.0,97,0.00,,OVC005,0.13,0.00,VWS V14.00,2013-03-10 12:22:00,
2013-03-10 07:23:00,34.7,33.9,29.75,North,360,11.0,14.0,97,0.00,,OVC005,0.13,0.00,VWS V14.00,2013-03-10 12:23:00,
2013-03-10 07:25:00,34.7,33.9,29.75,NW,323,7.0,14.0,97,0.00,,OVC005,0.13,0.00,VWS V14.00,2013-03-10 12:25:00,
2013-03-10 07:27:00,34.7,33.9,29.75,North,349,13.0,14.0,97,0.00,,OVC005,0.13,0.00,VWS V14.00,2013-03-10 12:27:00,
2013-03-10 07:28:00,34.7,33.9,29.75,NNW,330,12.0,15.0,97,0.00,,OVC005,0.13,0.00,VWS V14.00,2013-03-10 12:28:00,
2013-03-10 07:30:00,34.7,33.9,29.75,NNW,333,12.0,12.0,97,0.00,,OVC005,0.13,0.00,VWS V14.00,2013-03-10 12:30:00,
2013-03-10 07:32:00,34.7,33.9,29.74,NNW,333,12.0,22.0,97,0.00,,OVC005,0.13,0.00,VWS V14.00,2013-03-10 12:32:00,
2013-03-10 07:33:00,34.7,33.9,29.74,North,350,13.0,22.0,97,0.00,,OVC005,0.13,0.00,VWS V14.00,2013-03-10 12:33:00,
2013-03-10 07:35:00,34.7,33.9,29.75,NNW,342,9.0,17.0,97,0.00,,OVC005,0.13,0.00,VWS V14.00,2013-03-10 12:35:00,
2013-03-10 07:37:00,34.7,33.9,29.75,NW,320,8.0,17.0,97,0.00,,OVC005,0.13,0.00,VWS V14.00,2013-03-10 12:37:00,
2013-03-10 07:39:00,34.7,33.9,29.75,NNW,340,10.0,17.0,97,0.00,,OVC005,0.13,0.00,VWS V14.00,2013-03-10 12:39:00,
2013-03-10 07:40:00,34.7,33.9,29.75,NW,325,6.0,13.0,97,0.00,,OVC005,0.13,0.00,VWS V14.00,2013-03-10 12:40:00,
2013-03-10 07:42:00,34.7,33.9,29.75,NNW,342,7.0,16.0,97,0.00,,OVC005,0.13,0.00,VWS V14.00,2013-03-10 12:42:00,
2013-03-10 07:44:00,34.7,33.9,29.76,North,350,11.0,13.0,97,0.00,,OVC005,0.13,0.00,VWS V14.00,2013-03-10 12:44:00,
2013-03-10 07:45:00,34.7,33.9,29.76,NNW,329,18.0,18.0,97,0.00,,OVC005,0.13,0.00,VWS V14.00,2013-03-10 12:45:00,
2013-03-10 07:47:00,34.7,33.9,29.76,NNW,334,12.0,18.0,97,0.00,,OVC005,0.13,0.00,VWS V14.00,2013-03-10 12:47:00,
2013-03-10 07:49:00,34.7,33.9,29.77,North,5,5.0,14.0,97,0.00,,OVC005,0.13,0.00,VWS V14.00,2013-03-10 12:49:00,
2013-03-10 07:50:00,34.7,33.9,29.77,NNW,329,10.0,15.0,97,0.00,,OVC005,0.13,0.00,VWS V14.00,2013-03-10 12:50:00,
2013-03-10 07:52:00,34.7,33.9,29.77,NNW,335,13.0,15.0,97,0.00,,OVC005,0.13,0.00,VWS V14.00,2013-03-10 12:52:00,
2013-03-10 07:55:00,34.7,33.9,29.78,NNW,343,5.0,15.0,97,0.00,,OVC005,0.13,0.00,VWS V14.00,2013-03-10 12:55:00,
2013-03-10 07:57:00,34.7,33.9,29.78,North,360,8.0,15.0,97,0.00,,OVC005,0.13,0.00,VWS V14.00,2013-03-10 12:57:00,
2013-03-10 07:58:00,34.7,33.9,29.78,NNE,15,7.0,15.0,97,0.00,,OVC005,0.13,0.00,VWS V14.00,2013-03-10 12:58:00,
2013-03-10 08:00:00,34.7,33.9,29.77,NNW,344,10.0,17.0,97,0.00,,OVC007,0.13,0.00,VWS V14.00,2013-03-10 13:00:00,
2013-03-10 08:03:00,34.7,33.7,29.77,North,355,9.0,19.0,96,0.00,,OVC007,0.13,0.00,VWS V14.00,2013-03-10 13:03:00,
2013-03-10 08:05:00,34.7,33.7,29.78,North,11,14.0,16.0,96,0.00,,OVC007,0.13,0.00,VWS V14.00,2013-03-10 13:05:00,
2013-03-10 08:06:00,34.6,33.6,29.78,NNW,346,14.0,16.0,96,0.00,,OVC007,0.13,0.00,VWS V14.00,2013-03-10 13:06:00,
2013-03-10 08:08:00,34.6,33.6,29.76,North,360,15.0,17.0,96,0.00,,OVC007,0.13,0.00,VWS V14.00,2013-03-10 13:08:00,
2013-03-10 08:10:00,34.6,33.8,29.76,NW,318,9.0,17.0,97,0.00,,OVC029,0.13,0.00,VWS V14.00,2013-03-10 13:10:00,
2013-03-10 08:11:00,34.6,33.6,29.76,North,355,15.0,15.0,96,0.00,,OVC007,0.13,0.00,VWS V14.00,2013-03-10 13:11:00,
2013-03-10 08:13:00,34.6,33.6,29.75,North,355,16.0,24.0,96,0.00,,OVC007,0.13,5.00,VWS V14.00,2013-03-10 13:13:00,
2013-03-10 08:15:00,34.6,33.6,29.75,NNE,19,7.0,24.0,96,0.00,,OVC029,0.13,5.00,VWS V14.00,2013-03-10 13:15:00,
2013-03-10 08:16:00,34.5,33.5,29.75,NNE,14,7.0,19.0,96,0.00,,OVC007,0.13,5.00,VWS V14.00,2013-03-10 13:16:00,
2013-03-10 08:18:00,34.5,33.5,29.74,NNE,20,16.0,19.0,96,0.00,,OVC007,0.13,5.00,VWS V14.00,2013-03-10 13:18:00,
2013-03-10 08:19:00,34.5,33.5,29.74,NNE,13,5.0,19.0,96,0.00,,OVC007,0.13,5.00,VWS V14.00,2013-03-10 13:19:00,
2013-03-10 08:20:00,34.5,33.5,29.74,NNE,24,22.0,22.0,96,0.00,,OVC029,0.13,5.00,VWS V14.00,2013-03-10 13:20:00,
2013-03-10 08:21:00,34.5,33.5,29.75,NE,35,3.0,22.0,96,0.00,,,0.13,5.00,VWS V14.00,2013-03-10 13:21:00,
2013-03-10 08:24:00,34.5,33.5,29.74,NNE,17,18.0,22.0,96,0.00,,,0.13,5.00,VWS V14.00,2013-03-10 13:24:00,
2013-03-10 08:25:00,34.5,33.5,29.74,North,5,13.0,22.0,96,0.00,,OVC029,0.13,5.00,VWS V14.00,2013-03-10 13:25:00,
2013-03-10 08:26:00,34.5,33.5,29.74,North,9,10.0,17.0,96,0.00,,,0.13,7.00,VWS V14.00,2013-03-10 13:26:00,
2013-03-10 08:29:00,34.5,33.5,29.75,NNW,343,12.0,13.0,96,0.00,,,0.13,7.00,VWS V14.00,2013-03-10 13:29:00,
2013-03-10 08:30:00,34.5,33.5,29.75,West,272,10.0,22.0,96,0.00,,OVC029,0.13,7.00,VWS V14.00,2013-03-10 13:30:00,
2013-03-10 08:31:00,34.5,33.5,29.76,North,355,11.0,19.0,96,0.00,,,0.13,7.00,VWS V14.00,2013-03-10 13:31:00,
2013-03-10 08:34:00,34.5,33.5,29.78,North,360,10.0,10.0,96,0.00,,,0.13,9.00,VWS V14.00,2013-03-10 13:34:00,
2013-03-10 08:35:00,34.5,33.5,29.77,North,355,9.0,19.0,96,0.00,,OVC029,0.13,9.00,VWS V14.00,2013-03-10 13:35:00,
2013-03-10 08:36:00,34.5,33.5,29.78,North,5,15.0,17.0,96,0.00,,,0.13,9.00,VWS V14.00,2013-03-10 13:36:00,
2013-03-10 08:39:00,34.6,33.6,29.78,North,360,11.0,11.0,96,0.00,,,0.13,7.00,VWS V14.00,2013-03-10 13:39:00,
2013-03-10 08:40:00,34.6,33.6,29.78,NNW,337,11.0,21.0,96,0.00,,OVC029,0.13,7.00,VWS V14.00,2013-03-10 13:40:00,
2013-03-10 08:41:00,34.6,33.6,29.78,North,360,16.0,18.0,96,0.00,,OVC007,0.13,7.00,VWS V14.00,2013-03-10 13:41:00,
2013-03-10 08:44:00,34.6,33.6,29.78,NNE,16,10.0,17.0,96,0.00,,OVC007,0.13,9.00,VWS V14.00,2013-03-10 13:44:00,
2013-03-10 08:45:00,34.6,33.6,29.78,North,5,17.0,18.0,96,0.00,,OVC029,0.13,7.00,VWS V14.00,2013-03-10 13:45:00,
2013-03-10 08:46:00,34.6,33.6,29.78,North,355,15.0,17.0,96,0.00,,OVC007,0.13,9.00,VWS V14.00,2013-03-10 13:46:00,
2013-03-10 08:50:00,34.6,33.6,29.78,NNE,25,6.0,14.0,96,0.00,,OVC007,0.13,9.00,VWS V14.00,2013-03-10 13:50:00,
2013-03-10 08:51:00,34.6,33.6,29.78,NNE,26,9.0,14.0,96,0.00,,OVC007,0.13,9.00,VWS V14.00,2013-03-10 13:51:00,
2013-03-10 08:52:00,34.6,33.6,29.78,NNW,344,7.0,14.0,96,0.00,,OVC007,0.13,9.00,VWS V14.00,2013-03-10 13:52:00,
2013-03-10 08:55:00,34.6,33.6,29.77,North,350,9.0,18.0,96,0.00,,OVC007,0.13,11.00,VWS V14.00,2013-03-10 13:55:00,
2013-03-10 08:56:00,34.7,33.7,29.76,NNW,348,11.0,18.0,96,0.00,,OVC007,0.13,12.00,VWS V14.00,2013-03-10 13:56:00,
2013-03-10 08:57:00,34.7,33.7,29.76,NNE,12,10.0,18.0,96,0.00,,OVC007,0.13,12.00,VWS V14.00,2013-03-10 13:57:00,
2013-03-10 09:00:00,34.6,33.6,29.77,NNW,348,13.0,18.0,96,0.00,,OVC007,0.13,12.00,VWS V14.00,2013-03-10 14:00:00,
2013-03-10 09:02:00,34.6,33.6,29.77,North,351,10.0,18.0,96,0.00,,,0.13,11.00,VWS V14.00,2013-03-10 14:02:00,
2013-03-10 09:05:00,34.7,33.7,29.78,NNW,328,7.0,18.0,96,0.00,,,0.13,12.00,VWS V14.00,2013-03-10 14:05:00,
2013-03-10 09:07:00,34.7,33.7,29.78,North,360,8.0,18.0,96,0.00,,,0.13,12.00,VWS V14.00,2013-03-10 14:07:00,
2013-03-10 09:10:00,34.7,33.7,29.79,NNW,340,12.0,20.0,96,0.00,,,0.13,11.00,VWS V14.00,2013-03-10 14:10:00,
2013-03-10 09:12:00,34.7,33.7,29.79,NNW,348,13.0,20.0,96,0.00,,,0.13,12.00,VWS V14.00,2013-03-10 14:12:00,
2013-03-10 09:15:00,34.8,33.8,29.79,North,351,14.0,16.0,96,0.00,,,0.13,14.00,VWS V14.00,2013-03-10 14:15:00,
2013-03-10 09:17:00,34.8,33.8,29.79,North,5,14.0,16.0,96,0.00,,,0.13,14.00,VWS V14.00,2013-03-10 14:17:00,
2013-03-10 09:18:00,34.8,33.8,29.79,NW,313,13.0,17.0,96,0.00,,,0.13,16.00,VWS V14.00,2013-03-10 14:18:00,
2013-03-10 09:20:00,34.8,33.8,29.79,North,360,9.0,16.0,96,0.00,,,0.13,16.00,VWS V14.00,2013-03-10 14:20:00,
2013-03-10 09:21:00,34.8,33.8,29.78,NNW,345,15.0,17.0,96,0.00,,,0.13,16.00,VWS V14.00,2013-03-10 14:21:00,
2013-03-10 09:22:00,34.8,33.8,29.78,North,355,11.0,18.0,96,0.00,,,0.13,16.00,VWS V14.00,2013-03-10 14:22:00,
2013-03-10 09:23:00,34.8,33.8,29.78,NNW,339,13.0,18.0,96,0.00,,,0.13,16.00,VWS V14.00,2013-03-10 14:23:00,
2013-03-10 09:25:00,34.8,33.8,29.78,North,355,9.0,16.0,96,0.00,,,0.13,16.00,VWS V14.00,2013-03-10 14:25:00,
2013-03-10 09:26:00,34.8,33.8,29.78,North,360,7.0,16.0,96,0.00,,,0.13,16.00,VWS V14.00,2013-03-10 14:26:00,
2013-03-10 09:27:00,34.8,33.8,29.78,North,355,11.0,18.0,96,0.00,,,0.13,16.00,VWS V14.00,2013-03-10 14:27:00,
2013-03-10 09:28:00,34.8,33.8,29.78,NW,318,10.0,21.0,96,0.00,,,0.13,16.00,VWS V14.00,2013-03-10 14:28:00,
2013-03-10 09:30:00,34.8,33.8,29.78,NNW,347,6.0,21.0,96,0.00,,OVC029,0.13,16.00,VWS V14.00,2013-03-10 14:30:00,
2013-03-10 09:31:00,34.9,33.9,29.78,NNW,346,10.0,18.0,96,0.00,,,0.13,14.00,VWS V14.00,2013-03-10 14:31:00,
2013-03-10 09:32:00,34.8,33.8,29.79,NE,34,11.0,19.0,96,0.00,,,0.13,14.00,VWS V14.00,2013-03-10 14:32:00,
2013-03-10 09:33:00,34.8,33.8,29.79,North,11,10.0,19.0,96,0.00,,,0.13,14.00,VWS V14.00,2013-03-10 14:33:00,
2013-03-10 09:35:00,34.9,33.9,29.79,NNW,337,20.0,20.0,96,0.00,,OVC029,0.13,14.00,VWS V14.00,2013-03-10 14:35:00,
2013-03-10 09:36:00,34.8,33.8,29.78,North,355,9.0,20.0,96,0.00,,,0.13,12.00,VWS V14.00,2013-03-10 14:36:00,
2013-03-10 09:37:00,34.8,33.8,29.78,North,350,5.0,23.0,96,0.00,,,0.13,12.00,VWS V14.00,2013-03-10 14:37:00,
2013-03-10 09:38:00,34.9,33.9,29.78,NNW,335,10.0,23.0,96,0.00,,,0.13,12.00,VWS V14.00,2013-03-10 14:38:00,
2013-03-10 09:40:00,34.9,33.9,29.78,NNW,339,15.0,23.0,96,0.00,,OVC029,0.13,12.00,VWS V14.00,2013-03-10 14:40:00,
2013-03-10 09:41:00,34.9,33.9,29.79,NNW,340,13.0,17.0,96,0.00,,,0.13,11.00,VWS V14.00,2013-03-10 14:41:00,
2013-03-10 09:42:00,34.8,33.8,29.79,North,355,11.0,17.0,96,0.00,,,0.13,11.00,VWS V14.00,2013-03-10 14:42:00,
2013-03-10 09:43:00,34.9,33.9,29.79,North,355,6.0,17.0,96,0.00,,,0.13,11.00,VWS V14.00,2013-03-10 14:43:00,
2013-03-10 09:45:00,34.9,33.9,29.79,North,355,10.0,17.0,96,0.00,,OVC029,0.13,11.00,VWS V14.00,2013-03-10 14:45:00,
2013-03-10 09:46:00,34.9,33.9,29.80,NW,321,8.0,14.0,96,0.00,,,0.13,12.00,VWS V14.00,2013-03-10 14:46:00,
2013-03-10 09:47:00,34.9,33.9,29.80,NNE,25,9.0,16.0,96,0.01,,,0.14,11.00,VWS V14.00,2013-03-10 14:47:00,
2013-03-10 09:48:00,34.9,33.9,29.80,NNW,341,8.0,16.0,96,0.01,,,0.14,11.00,VWS V14.00,2013-03-10 14:48:00,
2013-03-10 09:49:00,34.9,33.9,29.80,NW,313,5.0,16.0,96,0.01,,,0.14,11.00,VWS V14.00,2013-03-10 14:49:00,
2013-03-10 09:50:00,34.9,33.9,29.80,NNW,331,8.0,16.0,96,0.01,,OVC029,0.14,11.00,VWS V14.00,2013-03-10 14:50:00,
2013-03-10 09:52:00,34.9,33.9,29.80,NNW,331,10.0,20.0,96,0.01,,,0.14,9.00,VWS V14.00,2013-03-10 14:52:00,
2013-03-10 09:53:00,34.9,33.9,29.80,NE,38,17.0,20.0,96,0.01,,,0.14,11.00,VWS V14.00,2013-03-10 14:53:00,
2013-03-10 09:54:00,34.9,33.9,29.80,North,355,15.0,17.0,96,0.01,,,0.14,11.00,VWS V14.00,2013-03-10 14:54:00,
2013-03-10 09:55:00,34.9,33.9,29.80,NNW,344,17.0,20.0,96,0.01,,OVC029,0.14,11.00,VWS V14.00,2013-03-10 14:55:00,
2013-03-10 09:57:00,34.9,33.9,29.79,NNE,22,13.0,18.0,96,0.01,,,0.14,23.00,VWS V14.00,2013-03-10 14:57:00,
2013-03-10 09:59:00,34.9,33.9,29.79,NNW,347,12.0,21.0,96,0.01,,,0.14,26.00,VWS V14.00,2013-03-10 14:59:00,
2013-03-10 10:00:00,34.9,33.9,29.79,NNE,13,7.0,21.0,96,0.01,,OVC029,0.14,26.00,VWS V14.00,2013-03-10 15:00:00,
2013-03-10 10:02:00,34.8,33.8,29.78,NNW,344,10.0,23.0,96,0.01,,,0.14,23.00,VWS V14.00,2013-03-10 15:02:00,
2013-03-10 10:04:00,34.8,33.8,29.78,NNE,14,12.0,23.0,96,0.01,,,0.14,23.00,VWS V14.00,2013-03-10 15:04:00,
2013-03-10 10:05:00,34.8,33.8,29.78,NNW,344,13.0,23.0,96,0.01,,OVC029,0.14,23.00,VWS V14.00,2013-03-10 15:05:00,
2013-03-10 10:07:00,34.8,33.8,29.77,North,9,9.0,19.0,96,0.01,,,0.14,26.00,VWS V14.00,2013-03-10 15:07:00,
2013-03-10 10:09:00,34.8,33.8,29.77,NNW,339,17.0,20.0,96,0.01,,,0.14,30.00,VWS V14.00,2013-03-10 15:09:00,
2013-03-10 10:10:00,34.8,33.8,29.77,NNW,339,17.0,20.0,96,0.01,,OVC029,0.14,30.00,VWS V14.00,2013-03-10 15:10:00,
2013-03-10 10:12:00,34.8,33.8,29.76,North,9,21.0,21.0,96,0.01,,,0.14,37.00,VWS V14.00,2013-03-10 15:12:00,
2013-03-10 10:13:00,34.8,33.8,29.75,North,355,14.0,24.0,96,0.01,,,0.14,37.00,VWS V14.00,2013-03-10 15:13:00,
2013-03-10 10:14:00,34.8,33.8,29.75,NNE,28,14.0,14.0,96,0.01,,,0.14,37.00,VWS V14.00,2013-03-10 15:14:00,
2013-03-10 10:15:00,34.8,33.8,29.75,North,10,9.0,18.0,96,0.01,,,0.14,37.00,VWS V14.00,2013-03-10 15:15:00,
2013-03-10 10:18:00,34.8,33.8,29.75,North,351,18.0,21.0,96,0.02,,,0.15,37.00,VWS V14.00,2013-03-10 15:18:00,
2013-03-10 10:19:00,34.8,33.8,29.75,North,351,8.0,18.0,96,0.02,,,0.15,42.00,VWS V14.00,2013-03-10 15:19:00,
2013-03-10 10:20:00,34.8,33.8,29.75,North,9,13.0,19.0,96,0.02,,,0.15,44.00,VWS V14.00,2013-03-10 15:20:00,
2013-03-10 10:23:00,34.8,33.8,29.75,NW,321,6.0,19.0,96,0.02,,,0.15,42.00,VWS V14.00,2013-03-10 15:23:00,
2013-03-10 10:24:00,34.8,33.8,29.75,NE,34,9.0,19.0,96,0.02,,,0.15,47.00,VWS V14.00,2013-03-10 15:24:00,
2013-03-10 10:25:00,34.8,33.8,29.75,NE,51,8.0,19.0,96,0.02,,,0.15,44.00,VWS V14.00,2013-03-10 15:25:00,
2013-03-10 10:28:00,34.8,33.8,29.74,North,351,13.0,21.0,96,0.02,,,0.15,42.00,VWS V14.00,2013-03-10 15:28:00,
2013-03-10 10:29:00,34.8,33.8,29.74,NNW,345,6.0,21.0,96,0.02,,,0.15,40.00,VWS V14.00,2013-03-10 15:29:00,
2013-03-10 10:30:00,34.8,33.8,29.74,NNW,342,10.0,18.0,96,0.02,,,0.15,42.00,VWS V14.00,2013-03-10 15:30:00,
2013-03-10 10:33:00,34.8,33.8,29.74,NW,323,9.0,20.0,96,0.02,,,0.15,42.00,VWS V14.00,2013-03-10 15:33:00,
2013-03-10 10:34:00,34.8,33.8,29.74,NE,36,13.0,20.0,96,0.02,,,0.15,42.00,VWS V14.00,2013-03-10 15:34:00,
2013-03-10 10:35:00,34.8,33.8,29.75,NE,45,7.0,16.0,96,0.02,,,0.15,37.00,VWS V14.00,2013-03-10 15:35:00,
2013-03-10 10:36:00,34.8,33.8,29.75,NNW,342,10.0,16.0,96,0.02,,,0.15,35.00,VWS V14.00,2013-03-10 15:36:00,
2013-03-10 10:38:00,34.8,33.8,29.76,NNW,332,9.0,22.0,96,0.02,,,0.15,26.00,VWS V14.00,2013-03-10 15:38:00,
2013-03-10 10:39:00,34.8,33.8,29.76,NNE,21,8.0,15.0,96,0.02,,,0.15,26.00,VWS V14.00,2013-03-10 15:39:00,
2013-03-10 10:40:00,34.8,33.8,29.77,North,355,9.0,20.0,96,0.02,,OVC009,0.15,25.00,VWS V14.00,2013-03-10 15:40:00,
2013-03-10 10:41:00,34.8,33.8,29.77,NNW,345,15.0,20.0,96,0.02,,OVC009,0.15,25.00,VWS V14.00,2013-03-10 15:41:00,
2013-03-10 10:43:00,34.8,33.8,29.77,ENE,63,5.0,20.0,96,0.02,,OVC009,0.15,21.00,VWS V14.00,2013-03-10 15:43:00,
2013-03-10 10:44:00,34.8,33.8,29.77,NE,44,10.0,14.0,96,0.02,,OVC009,0.15,19.00,VWS V14.00,2013-03-10 15:44:00,
2013-03-10 10:45:00,34.8,33.8,29.77,North,349,21.0,21.0,96,0.02,,OVC009,0.15,18.00,VWS V14.00,2013-03-10 15:45:00,
2013-03-10 10:46:00,34.8,33.8,29.78,NE,34,13.0,21.0,96,0.02,,OVC009,0.15,18.00,VWS V14.00,2013-03-10 15:46:00,
2013-03-10 10:49:00,34.9,33.9,29.79,NE,40,17.0,17.0,96,0.01,,OVC009,0.15,14.00,VWS V14.00,2013-03-10 15:49:00,
2013-03-10 10:50:00,34.9,33.9,29.79,NNE,32,10.0,19.0,96,0.01,,OVC009,0.15,12.00,VWS V14.00,2013-03-10 15:50:00,
2013-03-10 10:51:00,34.9,33.9,29.80,NNE,15,11.0,19.0,96,0.01,,OVC009,0.15,11.00,VWS V14.00,2013-03-10 15:51:00,
2013-03-10 10:54:00,34.9,33.9,29.82,WNW,299,9.0,9.0,96,0.01,,OVC009,0.15,11.00,VWS V14.00,2013-03-10 15:54:00,
2013-03-10 10:55:00,34.9,33.9,29.82,NW,325,10.0,12.0,96,0.01,,OVC009,0.15,11.00,VWS V14.00,2013-03-10 15:55:00,
2013-03-10 10:57:00,34.9,33.9,29.82,NW,323,7.0,14.0,96,0.01,,OVC009,0.15,14.00,VWS V14.00,2013-03-10 15:57:00,
2013-03-10 10:59:00,34.9,33.9,29.81,North,9,13.0,13.0,96,0.02,,OVC009,0.16,21.00,VWS V14.00,2013-03-10 15:59:00,
2013-03-10 11:00:00,34.9,33.9,29.81,NNW,346,10.0,18.0,96,0.02,,OVC009,0.16,21.00,VWS V14.00,2013-03-10 16:00:00,
2013-03-10 11:02:00,34.9,33.9,29.79,North,355,10.0,20.0,96,0.04,, +RA,0.18,39.00,VWS V14.00,2013-03-10 16:02:00,
2013-03-10 11:04:00,34.9,33.6,29.78,North,360,13.0,13.0,95,0.06,, +RA,0.20,44.00,VWS V14.00,2013-03-10 16:04:00,
2013-03-10 11:05:00,34.9,33.9,29.78,NNW,348,15.0,15.0,96,0.06,, +RA,0.20,49.00,VWS V14.00,2013-03-10 16:05:00,
2013-03-10 11:06:00,34.9,33.9,29.78,North,5,11.0,17.0,96,0.06,, +RA,0.20,47.00,VWS V14.00,2013-03-10 16:06:00,
2013-03-10 11:07:00,34.9,33.9,29.79,North,5,7.0,19.0,96,0.07,, +RA,0.21,35.00,VWS V14.00,2013-03-10 16:07:00,
2013-03-10 11:09:00,34.8,33.8,29.79,NNW,347,13.0,15.0,96,0.08,, +RA,0.22,37.00,VWS V14.00,2013-03-10 16:09:00,
2013-03-10 11:10:00,34.8,33.8,29.79,NNW,346,7.0,21.0,96,0.08,, +RA,0.22,37.00,VWS V14.00,2013-03-10 16:10:00,
2013-03-10 11:11:00,34.9,33.9,29.79,NNE,21,11.0,21.0,96,0.08,, +RA,0.22,37.00,VWS V14.00,2013-03-10 16:11:00,
2013-03-10 11:13:00,34.8,33.8,29.79,NE,36,17.0,21.0,96,0.09,, +RA,0.23,35.00,VWS V14.00,2013-03-10 16:13:00,
2013-03-10 11:14:00,34.8,33.8,29.80,NNW,335,10.0,13.0,96,0.09,, +RA,0.23,32.00,VWS V14.00,2013-03-10 16:14:00,
2013-03-10 11:15:00,34.8,33.8,29.80,NNW,345,9.0,15.0,96,0.09,, +RA,0.23,28.00,VWS V14.00,2013-03-10 16:15:00,
2013-03-10 11:17:00,34.8,33.8,29.81,NE,34,5.0,16.0,96,0.09,, +RA,0.23,19.00,VWS V14.00,2013-03-10 16:17:00,
2013-03-10 11:18:00,34.8,33.8,29.81,ENE,68,6.0,16.0,96,0.09,, +RA,0.23,16.00,VWS V14.00,2013-03-10 16:18:00,
2013-03-10 11:19:00,34.8,33.8,29.83,NE,46,5.0,6.0,96,0.08,, +RA,0.23,11.00,VWS V14.00,2013-03-10 16:19:00,
2013-03-10 11:20:00,34.8,33.8,29.83,NNE,24,4.0,6.0,96,0.08,,-RA,0.23,11.00,VWS V14.00,2013-03-10 16:20:00,
2013-03-10 11:22:00,34.8,33.8,29.83,NNE,28,2.0,6.0,96,0.08,,-RA,0.23,12.00,VWS V14.00,2013-03-10 16:22:00,
2013-03-10 11:23:00,34.8,33.8,29.83,NE,38,3.0,11.0,96,0.08,,-RA,0.23,12.00,VWS V14.00,2013-03-10 16:23:00,
2013-03-10 11:24:00,34.8,33.8,29.83,NE,35,5.0,10.0,96,0.08,,-RA,0.23,14.00,VWS V14.00,2013-03-10 16:24:00,
2013-03-10 11:25:00,34.8,33.8,29.83,NNE,19,6.0,10.0,96,0.08,,-RA,0.23,16.00,VWS V14.00,2013-03-10 16:25:00,
2013-03-10 11:27:00,34.8,33.8,29.82,NE,42,4.0,10.0,96,0.08,,-RA,0.23,25.00,VWS V14.00,2013-03-10 16:27:00,
2013-03-10 11:28:00,34.8,33.8,29.82,North,360,6.0,10.0,96,0.08,,-RA,0.23,25.00,VWS V14.00,2013-03-10 16:28:00,
2013-03-10 11:30:00,34.8,33.8,29.82,NE,54,6.0,12.0,96,0.08,,-RA,0.23,28.00,VWS V14.00,2013-03-10 16:30:00,
2013-03-10 11:32:00,34.7,33.7,29.81,NE,49,5.0,15.0,96,0.08,,-RA,0.23,28.00,VWS V14.00,2013-03-10 16:32:00,
2013-03-10 11:33:00,34.7,33.7,29.81,NE,47,5.0,15.0,96,0.08,,-RA,0.23,28.00,VWS V14.00,2013-03-10 16:33:00,
2013-03-10 11:35:00,34.7,33.4,29.80,NNE,32,10.0,13.0,95,0.08,,-RA,0.23,33.00,VWS V14.00,2013-03-10 16:35:00,
2013-03-10 11:37:00,34.5,33.2,29.79,NNE,22,6.0,16.0,95,0.08,,-RA,0.23,44.00,VWS V14.00,2013-03-10 16:37:00,
2013-03-10 11:38:00,34.5,33.2,29.78,NNE,24,7.0,16.0,95,0.09,,-RA,0.24,44.00,VWS V14.00,2013-03-10 16:38:00,
2013-03-10 11:40:00,34.4,33.1,29.78,NE,37,5.0,10.0,95,0.09,,-RA,0.24,44.00,VWS V14.00,2013-03-10 16:40:00,
2013-03-10 11:42:00,34.3,33.0,29.78,NE,38,6.0,15.0,95,0.09,,-RA,0.24,44.00,VWS V14.00,2013-03-10 16:42:00,
2013-03-10 11:43:00,34.3,33.0,29.78,NNE,18,8.0,15.0,95,0.09,,-RA,0.24,44.00,VWS V14.00,2013-03-10 16:43:00,
2013-03-10 11:45:00,34.2,32.9,29.77,NNE,22,7.0,19.0,95,0.09,,-RA,0.24,58.00,VWS V14.00,2013-03-10 16:45:00,
2013-03-10 11:47:00,34.2,33.2,29.77,North,9,14.0,19.0,96,0.09,,-RA,0.24,60.00,VWS V14.00,2013-03-10 16:47:00,
2013-03-10 11:48:00,34.2,33.2,29.77,NNE,13,18.0,19.0,96,0.09,,-RA,0.24,65.00,VWS V14.00,2013-03-10 16:48:00,
2013-03-10 11:50:00,34.1,33.1,29.77,North,9,12.0,17.0,96,0.09,,-RA,0.24,76.00,VWS V14.00,2013-03-10 16:50:00,
2013-03-10 11:52:00,34.1,33.1,29.77,North,5,8.0,17.0,96,0.09,,-RA,0.24,77.00,VWS V14.00,2013-03-10 16:52:00,
2013-03-10 11:53:00,34.1,33.1,29.77,NNE,27,11.0,17.0,96,0.09,,-RA,0.24,77.00,VWS V14.00,2013-03-10 16:53:00,
2013-03-10 11:55:00,34.0,33.0,29.77,North,5,13.0,16.0,96,0.09,,-RA,0.24,79.00,VWS V14.00,2013-03-10 16:55:00,
2013-03-10 11:56:00,34.1,33.1,29.77,NNE,12,10.0,16.0,96,0.09,,-RA,0.24,77.00,VWS V14.00,2013-03-10 16:56:00,
2013-03-10 11:58:00,34.0,33.0,29.77,NNE,15,11.0,16.0,96,0.09,,-RA,0.24,77.00,VWS V14.00,2013-03-10 16:58:00,
2013-03-10 12:00:00,34.0,33.0,29.77,North,360,10.0,16.0,96,0.08,,,0.24,88.00,VWS V14.00,2013-03-10 17:00:00,
2013-03-10 12:01:00,34.0,33.0,29.77,North,355,8.0,17.0,96,0.08,,,0.24,91.00,VWS V14.00,2013-03-10 17:01:00,
2013-03-10 12:03:00,34.0,33.0,29.77,NNE,28,9.0,17.0,96,0.08,,,0.24,84.00,VWS V14.00,2013-03-10 17:03:00,
2013-03-10 12:05:00,34.0,33.0,29.77,NNE,18,11.0,17.0,96,0.08,,OVC029,0.24,79.00,VWS V14.00,2013-03-10 17:05:00,
2013-03-10 12:06:00,34.0,33.0,29.77,NNW,336,9.0,16.0,96,0.06,,,0.25,60.00,VWS V14.00,2013-03-10 17:06:00,
2013-03-10 12:08:00,34.0,33.0,29.77,NNW,343,10.0,16.0,96,0.06,,,0.25,53.00,VWS V14.00,2013-03-10 17:08:00,
2013-03-10 12:10:00,34.0,33.0,29.77,NE,38,10.0,18.0,96,0.06,,OVC029,0.25,53.00,VWS V14.00,2013-03-10 17:10:00,
2013-03-10 12:11:00,34.0,33.0,29.77,NNW,345,10.0,18.0,96,0.03,,,0.25,53.00,VWS V14.00,2013-03-10 17:11:00,
2013-03-10 12:13:00,34.0,33.0,29.77,NNE,20,11.0,18.0,96,0.03,,,0.25,47.00,VWS V14.00,2013-03-10 17:13:00,
2013-03-10 12:15:00,34.0,33.0,29.77,NNE,13,5.0,18.0,96,0.03,,OVC029,0.25,51.00,VWS V14.00,2013-03-10 17:15:00,
2013-03-10 12:16:00,34.1,33.1,29.77,NNE,26,13.0,17.0,96,0.02,,,0.25,58.00,VWS V14.00,2013-03-10 17:16:00,
2013-03-10 12:18:00,34.1,33.1,29.76,NNE,18,11.0,17.0,96,0.02,,,0.25,65.00,VWS V14.00,2013-03-10 17:18:00,
2013-03-10 12:20:00,34.1,33.1,29.76,NE,52,13.0,18.0,96,0.02,,OVC029,0.25,67.00,VWS V14.00,2013-03-10 17:20:00,
2013-03-10 12:21:00,34.1,33.1,29.76,NNE,13,9.0,16.0,96,0.02,,OVC011,0.25,63.00,VWS V14.00,2013-03-10 17:21:00,
2013-03-10 12:22:00,34.1,33.1,29.76,North,9,6.0,16.0,96,0.02,,OVC011,0.25,63.00,VWS V14.00,2013-03-10 17:22:00,
2013-03-10 12:23:00,34.1,33.1,29.75,NNE,26,17.0,17.0,96,0.02,,OVC011,0.25,76.00,VWS V14.00,2013-03-10 17:23:00,
2013-03-10 12:24:00,34.2,33.2,29.75,NNE,15,15.0,17.0,96,0.02,,OVC011,0.25,70.00,VWS V14.00,2013-03-10 17:24:00,
2013-03-10 12:25:00,34.2,33.2,29.75,North,355,8.0,17.0,96,0.02,,OVC029,0.25,70.00,VWS V14.00,2013-03-10 17:25:00,
2013-03-10 12:26:00,34.2,33.2,29.76,NNE,28,9.0,13.0,96,0.02,,OVC011,0.25,53.00,VWS V14.00,2013-03-10 17:26:00,
2013-03-10 12:27:00,34.2,33.2,29.76,North,11,3.0,13.0,96,0.02,,OVC011,0.25,53.00,VWS V14.00,2013-03-10 17:27:00,
2013-03-10 12:29:00,34.2,33.2,29.76,North,349,12.0,21.0,96,0.02,,OVC011,0.25,51.00,VWS V14.00,2013-03-10 17:29:00,
2013-03-10 12:30:00,34.2,33.2,29.76,NE,46,10.0,21.0,96,0.02,,OVC029,0.25,47.00,VWS V14.00,2013-03-10 17:30:00,
2013-03-10 12:31:00,34.2,33.2,29.76,NE,34,4.0,16.0,96,0.02,,OVC011,0.25,46.00,VWS V14.00,2013-03-10 17:31:00,
2013-03-10 12:32:00,34.3,33.3,29.76,NNE,17,12.0,16.0,96,0.02,,OVC011,0.25,46.00,VWS V14.00,2013-03-10 17:32:00,
2013-03-10 12:34:00,34.2,33.2,29.76,North,360,10.0,18.0,96,0.02,,OVC011,0.25,46.00,VWS V14.00,2013-03-10 17:34:00,
2013-03-10 12:35:00,34.2,33.2,29.76,NNE,15,11.0,18.0,96,0.02,,OVC029,0.25,51.00,VWS V14.00,2013-03-10 17:35:00,
2013-03-10 12:36:00,34.2,33.2,29.75,North,355,12.0,16.0,96,0.02,,OVC011,0.25,39.00,VWS V14.00,2013-03-10 17:36:00,
2013-03-10 12:37:00,34.2,33.2,29.75,NE,40,14.0,16.0,96,0.02,,OVC011,0.25,39.00,VWS V14.00,2013-03-10 17:37:00,
2013-03-10 12:39:00,34.3,33.3,29.75,NE,40,10.0,16.0,96,0.02,,OVC011,0.25,39.00,VWS V14.00,2013-03-10 17:39:00,
2013-03-10 12:40:00,34.2,33.2,29.75,NNE,13,12.0,16.0,96,0.02,,OVC029,0.25,39.00,VWS V14.00,2013-03-10 17:40:00,
2013-03-10 12:41:00,34.2,33.2,29.75,NE,36,8.0,19.0,96,0.01,,OVC009,0.25,44.00,VWS V14.00,2013-03-10 17:41:00,
2013-03-10 12:42:00,34.2,33.2,29.75,NNE,21,6.0,19.0,96,0.01,,OVC009,0.25,47.00,VWS V14.00,2013-03-10 17:42:00,
2013-03-10 12:44:00,34.2,33.2,29.75,NNE,26,13.0,19.0,96,0.01,,OVC009,0.25,40.00,VWS V14.00,2013-03-10 17:44:00,
2013-03-10 12:45:00,34.3,33.3,29.75,NNE,22,13.0,19.0,96,0.01,,OVC029,0.25,40.00,VWS V14.00,2013-03-10 17:45:00,
2013-03-10 12:47:00,34.3,33.3,29.75,North,10,4.0,17.0,96,0.01,,OVC009,0.25,32.00,VWS V14.00,2013-03-10 17:47:00,
2013-03-10 12:49:00,34.3,33.3,29.76,NNE,26,6.0,17.0,96,0.01,,OVC009,0.25,30.00,VWS V14.00,2013-03-10 17:49:00,
2013-03-10 12:50:00,34.3,33.3,29.76,North,9,7.0,17.0,96,0.01,,OVC029,0.25,30.00,VWS V14.00,2013-03-10 17:50:00,
2013-03-10 12:52:00,34.3,33.3,29.75,North,355,12.0,15.0,96,0.01,,OVC009,0.25,30.00,VWS V14.00,2013-03-10 17:52:00,
2013-03-10 12:54:00,34.3,33.3,29.75,North,5,15.0,18.0,96,0.01,,OVC009,0.25,37.00,VWS V14.00,2013-03-10 17:54:00,
2013-03-10 12:55:00,34.3,33.3,29.75,NNE,17,13.0,18.0,96,0.01,,OVC029,0.25,37.00,VWS V14.00,2013-03-10 17:55:00,
2013-03-10 12:57:00,34.2,33.2,29.74,North,360,11.0,20.0,96,0.01,,OVC009,0.25,40.00,VWS V14.00,2013-03-10 17:57:00,
2013-03-10 12:58:00,34.3,33.3,29.74,NNE,30,6.0,20.0,96,0.01,,OVC009,0.25,37.00,VWS V14.00,2013-03-10 17:58:00,
2013-03-10 12:59:00,34.3,33.3,29.75,NNW,330,7.0,20.0,96,0.01,,OVC009,0.25,40.00,VWS V14.00,2013-03-10 17:59:00,
2013-03-10 13:00:00,34.3,33.3,29.75,NNE,26,10.0,20.0,96,0.01,,OVC029,0.25,40.00,VWS V14.00,2013-03-10 18:00:00,
2013-03-10 13:02:00,34.3,33.3,29.74,NNE,13,16.0,19.0,96,0.01,,,0.25,53.00,VWS V14.00,2013-03-10 18:02:00,
2013-03-10 13:03:00,34.3,33.3,29.74,NNW,344,13.0,20.0,96,0.01,,,0.25,53.00,VWS V14.00,2013-03-10 18:03:00,
2013-03-10 13:04:00,34.3,33.3,29.74,North,9,9.0,20.0,96,0.01,,,0.25,53.00,VWS V14.00,2013-03-10 18:04:00,
2013-03-10 13:05:00,34.3,33.3,29.74,North,9,9.0,20.0,96,0.01,,OVC029,0.25,53.00,VWS V14.00,2013-03-10 18:05:00,
2013-03-10 13:07:00,34.3,33.3,29.74,NNE,12,19.0,20.0,96,0.01,,,0.25,44.00,VWS V14.00,2013-03-10 18:07:00,
2013-03-10 13:08:00,34.3,33.3,29.75,NNE,24,7.0,20.0,96,0.01,,,0.25,44.00,VWS V14.00,2013-03-10 18:08:00,
2013-03-10 13:09:00,34.3,33.3,29.75,North,5,9.0,15.0,96,0.00,,,0.25,39.00,VWS V14.00,2013-03-10 18:09:00,
2013-03-10 13:10:00,34.3,33.3,29.75,NNE,15,11.0,24.0,96,0.01,,OVC029,0.25,39.00,VWS V14.00,2013-03-10 18:10:00,
2013-03-10 13:12:00,34.3,33.3,29.75,NNE,25,11.0,17.0,96,0.00,,,0.25,30.00,VWS V14.00,2013-03-10 18:12:00,
2013-03-10 13:13:00,34.3,33.3,29.75,North,9,9.0,17.0,96,0.00,,,0.25,30.00,VWS V14.00,2013-03-10 18:13:00,
2013-03-10 13:14:00,34.3,33.3,29.75,NNE,32,5.0,17.0,96,0.00,,,0.25,33.00,VWS V14.00,2013-03-10 18:14:00,
2013-03-10 13:15:00,34.3,33.3,29.75,NNE,20,17.0,17.0,96,0.00,,OVC029,0.25,30.00,VWS V14.00,2013-03-10 18:15:00,
2013-03-10 13:17:00,34.3,33.3,29.76,NE,54,14.0,17.0,96,0.00,,,0.25,26.00,VWS V14.00,2013-03-10 18:17:00,
2013-03-10 13:18:00,34.3,33.3,29.76,NNE,21,4.0,17.0,96,0.00,,,0.25,26.00,VWS V14.00,2013-03-10 18:18:00,
2013-03-10 13:19:00,34.3,33.3,29.75,North,349,12.0,14.0,96,0.00,,,0.25,25.00,VWS V14.00,2013-03-10 18:19:00,
2013-03-10 13:20:00,34.3,33.3,29.75,North,355,12.0,14.0,96,0.00,,,0.25,25.00,VWS V14.00,2013-03-10 18:20:00,
2013-03-10 13:22:00,34.4,33.1,29.75,North,9,7.0,14.0,95,0.00,,,0.25,30.00,VWS V14.00,2013-03-10 18:22:00,
2013-03-10 13:23:00,34.4,33.1,29.75,NE,49,5.0,14.0,95,0.00,,,0.25,30.00,VWS V14.00,2013-03-10 18:23:00,
2013-03-10 13:24:00,34.4,33.1,29.75,North,9,11.0,11.0,95,0.00,,,0.25,30.00,VWS V14.00,2013-03-10 18:24:00,
2013-03-10 13:25:00,34.4,33.1,29.75,NNE,16,10.0,13.0,95,0.00,,,0.25,30.00,VWS V14.00,2013-03-10 18:25:00,
2013-03-10 13:27:00,34.3,33.0,29.75,NNW,342,11.0,13.0,95,0.00,,,0.25,28.00,VWS V14.00,2013-03-10 18:27:00,
2013-03-10 13:28:00,34.4,33.1,29.75,NNW,340,10.0,14.0,95,0.00,,,0.25,30.00,VWS V14.00,2013-03-10 18:28:00,
2013-03-10 13:29:00,34.4,33.1,29.75,North,9,14.0,14.0,95,0.00,,,0.25,28.00,VWS V14.00,2013-03-10 18:29:00,
2013-03-10 13:30:00,34.4,33.1,29.75,NNE,12,6.0,14.0,95,0.00,,,0.25,28.00,VWS V14.00,2013-03-10 18:30:00,
2013-03-10 13:32:00,34.4,33.1,29.75,NNE,13,9.0,19.0,95,0.01,,,0.26,33.00,VWS V14.00,2013-03-10 18:32:00,
2013-03-10 13:34:00,34.4,33.1,29.75,NNW,342,6.0,19.0,95,0.01,,,0.26,33.00,VWS V14.00,2013-03-10 18:34:00,
2013-03-10 13:35:00,34.4,33.1,29.75,North,5,15.0,16.0,95,0.01,,,0.26,32.00,VWS V14.00,2013-03-10 18:35:00,
2013-03-10 13:38:00,34.4,33.1,29.75,North,360,7.0,16.0,95,0.01,,,0.26,26.00,VWS V14.00,2013-03-10 18:38:00,
2013-03-10 13:39:00,34.4,33.1,29.75,North,355,7.0,16.0,95,0.01,,,0.26,28.00,VWS V14.00,2013-03-10 18:39:00,
2013-03-10 13:40:00,34.4,33.1,29.75,NNE,19,7.0,14.0,95,0.01,,,0.26,26.00,VWS V14.00,2013-03-10 18:40:00,
2013-03-10 13:43:00,34.4,33.1,29.74,NNE,13,13.0,14.0,95,0.01,,,0.26,25.00,VWS V14.00,2013-03-10 18:43:00,
2013-03-10 13:44:00,34.4,33.1,29.74,North,10,11.0,11.0,95,0.01,,,0.26,26.00,VWS V14.00,2013-03-10 18:44:00,
2013-03-10 13:45:00,34.4,33.1,29.74,North,5,6.0,14.0,95,0.01,,,0.26,28.00,VWS V14.00,2013-03-10 18:45:00,
2013-03-10 13:48:00,34.4,33.1,29.73,NE,36,20.0,20.0,95,0.01,,,0.26,32.00,VWS V14.00,2013-03-10 18:48:00,
2013-03-10 13:49:00,34.4,33.1,29.73,North,9,10.0,10.0,95,0.01,,,0.26,30.00,VWS V14.00,2013-03-10 18:49:00,
2013-03-10 13:50:00,34.4,33.1,29.73,NNE,33,11.0,17.0,95,0.01,,,0.26,30.00,VWS V14.00,2013-03-10 18:50:00,
2013-03-10 13:51:00,34.4,33.1,29.73,NNE,15,8.0,17.0,95,0.01,,,0.26,30.00,VWS V14.00,2013-03-10 18:51:00,
2013-03-10 13:53:00,34.3,33.0,29.73,NE,41,9.0,17.0,95,0.01,,,0.26,28.00,VWS V14.00,2013-03-10 18:53:00,
2013-03-10 13:54:00,34.3,33.0,29.73,NE,40,16.0,16.0,95,0.01,,,0.26,26.00,VWS V14.00,2013-03-10 18:54:00,
2013-03-10 13:55:00,34.3,33.0,29.73,North,355,8.0,16.0,95,0.01,,,0.26,26.00,VWS V14.00,2013-03-10 18:55:00,
2013-03-10 13:56:00,34.4,33.1,29.73,NNW,348,11.0,16.0,95,0.01,,,0.26,26.00,VWS V14.00,2013-03-10 18:56:00,
2013-03-10 13:58:00,34.3,33.0,29.73,NE,35,6.0,18.0,95,0.01,,,0.26,25.00,VWS V14.00,2013-03-10 18:58:00,
2013-03-10 14:00:00,34.3,33.0,29.73,North,360,14.0,16.0,95,0.01,,,0.26,25.00,VWS V14.00,2013-03-10 19:00:00,
2013-03-10 14:01:00,34.3,33.0,29.73,North,355,15.0,16.0,95,0.01,,,0.26,25.00,VWS V14.00,2013-03-10 19:01:00,
2013-03-10 14:04:00,34.3,33.0,29.72,NNW,347,11.0,16.0,95,0.01,,,0.26,28.00,VWS V14.00,2013-03-10 19:04:00,
2013-03-10 14:05:00,34.3,33.0,29.72,NNW,342,15.0,16.0,95,0.01,,OVC029,0.26,28.00,VWS V14.00,2013-03-10 19:05:00,
2013-03-10 14:06:00,34.3,33.0,29.72,NNE,24,10.0,15.0,95,0.01,,,0.26,30.00,VWS V14.00,2013-03-10 19:06:00,
2013-03-10 14:09:00,34.3,33.3,29.71,NNE,33,6.0,18.0,96,0.01,,,0.26,26.00,VWS V14.00,2013-03-10 19:09:00,
2013-03-10 14:10:00,34.3,33.3,29.71,North,355,11.0,18.0,96,0.01,,OVC029,0.26,26.00,VWS V14.00,2013-03-10 19:10:00,
2013-03-10 14:11:00,34.3,33.3,29.70,NNE,32,7.0,13.0,96,0.01,,,0.26,30.00,VWS V14.00,2013-03-10 19:11:00,
2013-03-10 14:14:00,34.3,33.3,29.70,NW,317,6.0,6.0,96,0.01,,,0.26,26.00,VWS V14.00,2013-03-10 19:14:00,
2013-03-10 14:15:00,34.3,33.3,29.70,NNW,344,6.0,16.0,96,0.01,,OVC029,0.26,26.00,VWS V14.00,2013-03-10 19:15:00,
2013-03-10 14:16:00,34.3,33.3,29.71,NNE,12,10.0,16.0,96,0.01,,,0.26,26.00,VWS V14.00,2013-03-10 19:16:00,
2013-03-10 14:19:00,34.3,33.3,29.70,NNE,22,13.0,19.0,96,0.01,,,0.26,28.00,VWS V14.00,2013-03-10 19:19:00,
2013-03-10 14:20:00,34.3,33.3,29.70,NNE,22,13.0,19.0,96,0.01,,OVC029,0.26,28.00,VWS V14.00,2013-03-10 19:20:00,
2013-03-10 14:21:00,34.3,33.3,29.70,North,351,4.0,13.0,96,0.01,,-RA,0.26,25.00,VWS V14.00,2013-03-10 19:21:00,
2013-03-10 14:24:00,34.3,33.3,29.71,NNW,344,9.0,15.0,96,0.01,,-RA,0.26,21.00,VWS V14.00,2013-03-10 19:24:00,
2013-03-10 14:25:00,34.3,33.3,29.71,NNW,328,6.0,17.0,96,0.01,,OVC029,0.26,21.00,VWS V14.00,2013-03-10 19:25:00,
2013-03-10 14:26:00,34.3,33.3,29.71,North,355,15.0,15.0,96,0.01,,-RA,0.26,19.00,VWS V14.00,2013-03-10 19:26:00,
2013-03-10 14:27:00,34.3,33.3,29.70,NNE,25,12.0,15.0,96,0.01,,-RA,0.26,21.00,VWS V14.00,2013-03-10 19:27:00,
2013-03-10 14:29:00,34.3,33.3,29.70,North,355,6.0,10.0,96,0.01,,-RA,0.26,19.00,VWS V14.00,2013-03-10 19:29:00,
2013-03-10 14:30:00,34.3,33.3,29.70,NNE,19,8.0,16.0,96,0.01,,OVC029,0.26,19.00,VWS V14.00,2013-03-10 19:30:00,
2013-03-10 14:31:00,34.3,33.3,29.70,North,351,13.0,15.0,96,0.01,,-RA,0.26,19.00,VWS V14.00,2013-03-10 19:31:00,
2013-03-10 14:32:00,34.3,33.3,29.70,NW,317,5.0,15.0,96,0.01,,-RA,0.26,18.00,VWS V14.00,2013-03-10 19:32:00,
2013-03-10 14:34:00,34.3,33.3,29.71,North,355,14.0,14.0,96,0.00,,-RA,0.26,18.00,VWS V14.00,2013-03-10 19:34:00,
2013-03-10 14:35:00,34.3,33.3,29.71,North,360,4.0,15.0,96,0.01,,OVC029,0.26,18.00,VWS V14.00,2013-03-10 19:35:00,
2013-03-10 14:36:00,34.3,33.3,29.71,NNW,334,8.0,14.0,96,0.00,,-RA,0.26,16.00,VWS V14.00,2013-03-10 19:36:00,
2013-03-10 14:37:00,34.3,33.3,29.71,North,349,9.0,14.0,96,0.00,,-RA,0.26,16.00,VWS V14.00,2013-03-10 19:37:00,
2013-03-10 14:39:00,34.2,33.2,29.71,North,355,7.0,14.0,96,0.00,,-RA,0.26,16.00,VWS V14.00,2013-03-10 19:39:00,
2013-03-10 14:40:00,34.2,33.2,29.71,North,350,13.0,14.0,96,0.00,,OVC029,0.26,18.00,VWS V14.00,2013-03-10 19:40:00,
2013-03-10 14:42:00,34.3,33.3,29.71,NNW,342,7.0,14.0,96,0.00,,-RA,0.26,16.00,VWS V14.00,2013-03-10 19:42:00,
2013-03-10 14:43:00,34.3,33.3,29.71,NNW,339,10.0,14.0,96,0.00,,-RA,0.26,19.00,VWS V14.00,2013-03-10 19:43:00,
2013-03-10 14:45:00,34.3,33.3,29.72,NNW,333,12.0,12.0,96,0.00,,-RA,0.26,19.00,VWS V14.00,2013-03-10 19:45:00,
2013-03-10 14:47:00,34.3,33.3,29.72,NNW,336,4.0,18.0,96,0.00,,-RA,0.26,21.00,VWS V14.00,2013-03-10 19:47:00,
2013-03-10 14:49:00,34.3,33.3,29.72,NNE,16,9.0,18.0,96,0.00,,-RA,0.26,28.00,VWS V14.00,2013-03-10 19:49:00,
2013-03-10 14:50:00,34.3,33.3,29.72,NW,324,10.0,15.0,96,0.00,,-RA,0.26,35.00,VWS V14.00,2013-03-10 19:50:00,
2013-03-10 14:52:00,34.3,33.3,29.72,NNW,327,7.0,15.0,96,0.00,,-RA,0.26,49.00,VWS V14.00,2013-03-10 19:52:00,
2013-03-10 14:54:00,34.3,33.3,29.72,North,355,10.0,13.0,96,0.00,,-RA,0.26,46.00,VWS V14.00,2013-03-10 19:54:00,
2013-03-10 14:55:00,34.3,33.3,29.72,North,9,9.0,13.0,96,0.00,,-RA,0.26,47.00,VWS V14.00,2013-03-10 19:55:00,
2013-03-10 14:57:00,34.3,33.3,29.72,North,355,8.0,13.0,96,0.00,,-RA,0.26,40.00,VWS V14.00,2013-03-10 19:57:00,
2013-03-10 14:59:00,34.3,33.0,29.72,North,351,5.0,5.0,95,0.00,,-RA,0.26,40.00,VWS V14.00,2013-03-10 19:59:00,
2013-03-10 15:00:00,34.3,33.0,29.72,NNW,348,6.0,13.0,95,0.00,,RA,0.26,35.00,VWS V14.00,2013-03-10 20:00:00,
2013-03-10 15:02:00,34.3,33.0,29.72,NNE,25,4.0,13.0,95,0.00,,RA,0.26,37.00,VWS V14.00,2013-03-10 20:02:00,
2013-03-10 15:03:00,34.2,32.9,29.72,North,5,8.0,13.0,95,0.00,,RA,0.26,37.00,VWS V14.00,2013-03-10 20:03:00,
2013-03-10 15:04:00,34.2,32.9,29.72,NNW,346,5.0,12.0,95,0.00,,RA,0.26,37.00,VWS V14.00,2013-03-10 20:04:00,
2013-03-10 15:05:00,34.2,32.9,29.72,NNE,28,10.0,12.0,95,0.00,,RA,0.26,44.00,VWS V14.00,2013-03-10 20:05:00,
2013-03-10 15:08:00,34.2,32.9,29.72,NW,315,5.0,13.0,95,0.00,,RA,0.26,42.00,VWS V14.00,2013-03-10 20:08:00,
2013-03-10 15:09:00,34.2,32.9,29.72,NNW,342,6.0,6.0,95,0.00,,RA,0.26,42.00,VWS V14.00,2013-03-10 20:09:00,
2013-03-10 15:10:00,34.2,32.9,29.72,NNW,342,6.0,13.0,95,0.00,,OVC029,0.26,42.00,VWS V14.00,2013-03-10 20:10:00,
2013-03-10 15:11:00,34.1,32.8,29.72,NNW,341,6.0,11.0,95,0.00,,RA,0.26,37.00,VWS V14.00,2013-03-10 20:11:00,
2013-03-10 15:13:00,34.1,32.8,29.72,NNW,333,6.0,13.0,95,0.00,,RA,0.26,47.00,VWS V14.00,2013-03-10 20:13:00,
2013-03-10 15:14:00,34.1,32.8,29.73,North,350,4.0,8.0,95,0.00,,RA,0.26,47.00,VWS V14.00,2013-03-10 20:14:00,
2013-03-10 15:15:00,34.1,32.8,29.73,North,9,8.0,13.0,95,0.00,,OVC029,0.26,47.00,VWS V14.00,2013-03-10 20:15:00,
2013-03-10 15:17:00,34.1,33.1,29.73,NNW,331,6.0,13.0,96,0.00,,RA,0.26,47.00,VWS V14.00,2013-03-10 20:17:00,
2013-03-10 15:19:00,34.1,33.1,29.72,North,351,8.0,15.0,96,0.00,,RA,0.26,47.00,VWS V14.00,2013-03-10 20:19:00,
2013-03-10 15:20:00,34.1,32.8,29.73,NNW,346,6.0,8.0,95,0.00,,RA,0.26,53.00,VWS V14.00,2013-03-10 20:20:00,
2013-03-10 15:22:00,34.1,32.8,29.72,North,5,7.0,10.0,95,0.00,,RA,0.26,51.00,VWS V14.00,2013-03-10 20:22:00,
2013-03-10 15:24:00,34.0,32.7,29.73,NNW,348,6.0,12.0,95,0.00,,RA,0.26,44.00,VWS V14.00,2013-03-10 20:24:00,
2013-03-10 15:25:00,34.0,32.7,29.73,NNW,348,6.0,9.0,95,0.00,,RA,0.26,42.00,VWS V14.00,2013-03-10 20:25:00,
2013-03-10 15:27:00,34.0,32.7,29.73,North,5,6.0,10.0,95,0.00,,RA,0.26,49.00,VWS V14.00,2013-03-10 20:27:00,
2013-03-10 15:29:00,33.9,32.6,29.73,North,355,6.0,11.0,95,0.00,,RA,0.26,53.00,VWS V14.00,2013-03-10 20:29:00,
2013-03-10 15:30:00,33.9,32.6,29.73,NNW,345,7.0,7.0,95,0.00,,RA,0.26,54.00,VWS V14.00,2013-03-10 20:30:00,
2013-03-10 15:32:00,33.9,32.6,29.72,North,5,4.0,10.0,95,0.00,,RA,0.26,51.00,VWS V14.00,2013-03-10 20:32:00,
2013-03-10 15:34:00,33.8,32.5,29.72,NNW,346,8.0,10.0,95,0.00,,RA,0.26,54.00,VWS V14.00,2013-03-10 20:34:00,
2013-03-10 15:35:00,33.8,32.8,29.72,NNW,335,8.0,10.0,96,0.00,,RA,0.26,54.00,VWS V14.00,2013-03-10 20:35:00,
2013-03-10 15:37:00,33.8,32.8,29.73,North,355,5.0,11.0,96,0.00,,RA,0.26,51.00,VWS V14.00,2013-03-10 20:37:00,
2013-03-10 15:39:00,33.7,32.7,29.73,NNW,344,6.0,7.0,96,0.00,,RA,0.26,54.00,VWS V14.00,2013-03-10 20:39:00,
2013-03-10 15:40:00,33.7,32.7,29.73,North,355,9.0,9.0,96,0.00,,,0.26,54.00,VWS V14.00,2013-03-10 20:40:00,
2013-03-10 15:41:00,33.7,32.7,29.73,North,349,4.0,10.0,96,0.00,,,0.26,53.00,VWS V14.00,2013-03-10 20:41:00,
2013-03-10 15:43:00,33.7,32.7,29.73,North,5,8.0,11.0,96,0.00,,,0.26,56.00,VWS V14.00,2013-03-10 20:43:00,
2013-03-10 15:44:00,33.7,32.7,29.73,NNW,341,10.0,11.0,96,0.00,,,0.26,58.00,VWS V14.00,2013-03-10 20:44:00,
2013-03-10 15:45:00,33.7,32.7,29.73,NNW,327,8.0,10.0,96,0.00,,,0.26,54.00,VWS V14.00,2013-03-10 20:45:00,
2013-03-10 15:46:00,33.7,32.7,29.73,North,355,7.0,10.0,96,0.00,,,0.26,54.00,VWS V14.00,2013-03-10 20:46:00,
2013-03-10 15:48:00,33.7,32.7,29.73,NNW,346,8.0,11.0,96,0.00,,,0.26,54.00,VWS V14.00,2013-03-10 20:48:00,
2013-03-10 15:49:00,33.6,32.6,29.73,NNW,348,8.0,10.0,96,0.00,,,0.26,54.00,VWS V14.00,2013-03-10 20:49:00,
2013-03-10 15:50:00,33.6,32.6,29.73,North,360,10.0,12.0,96,0.00,,OVC029,0.26,54.00,VWS V14.00,2013-03-10 20:50:00,
2013-03-10 15:51:00,33.6,32.6,29.73,NNW,343,7.0,14.0,96,0.00,,,0.26,54.00,VWS V14.00,2013-03-10 20:51:00,
2013-03-10 15:52:00,33.6,32.6,29.73,North,10,9.0,14.0,96,0.00,,,0.26,60.00,VWS V14.00,2013-03-10 20:52:00,
2013-03-10 15:53:00,33.6,32.6,29.73,NNE,22,7.0,14.0,96,0.00,,,0.26,60.00,VWS V14.00,2013-03-10 20:53:00,
2013-03-10 15:54:00,33.6,32.6,29.73,North,9,6.0,9.0,96,0.00,,,0.26,65.00,VWS V14.00,2013-03-10 20:54:00,
2013-03-10 15:55:00,33.6,32.6,29.73,NNW,338,7.0,14.0,96,0.00,,OVC029,0.26,65.00,VWS V14.00,2013-03-10 20:55:00,
2013-03-10 15:57:00,33.6,32.6,29.73,North,355,7.0,12.0,96,0.00,,,0.26,62.00,VWS V14.00,2013-03-10 20:57:00,
2013-03-10 15:58:00,33.6,32.6,29.73,North,355,8.0,12.0,96,0.00,,,0.26,62.00,VWS V14.00,2013-03-10 20:58:00,
2013-03-10 15:59:00,33.6,32.6,29.73,NNW,348,8.0,9.0,96,0.00,,,0.26,65.00,VWS V14.00,2013-03-10 20:59:00,
2013-03-10 16:00:00,33.6,32.6,29.73,NNW,343,8.0,12.0,96,0.00,,OVC029,0.26,65.00,VWS V14.00,2013-03-10 21:00:00,
2013-03-10 16:02:00,33.6,32.6,29.73,NNW,345,10.0,11.0,96,0.00,,,0.26,63.00,VWS V14.00,2013-03-10 21:02:00,
2013-03-10 16:03:00,33.6,32.6,29.73,NNW,331,4.0,12.0,96,0.00,,,0.26,63.00,VWS V14.00,2013-03-10 21:03:00,
2013-03-10 16:04:00,33.6,32.6,29.73,NNW,340,3.0,3.0,96,0.00,,,0.26,60.00,VWS V14.00,2013-03-10 21:04:00,
2013-03-10 16:05:00,33.6,32.6,29.73,North,9,3.0,12.0,96,0.00,,OVC029,0.26,63.00,VWS V14.00,2013-03-10 21:05:00,
2013-03-10 16:07:00,33.6,32.6,29.73,North,11,7.0,13.0,96,0.00,,,0.26,69.00,VWS V14.00,2013-03-10 21:07:00,
2013-03-10 16:09:00,33.6,32.6,29.73,NNW,338,9.0,13.0,96,0.00,,,0.26,69.00,VWS V14.00,2013-03-10 21:09:00,
2013-03-10 16:10:00,33.6,32.6,29.73,NNW,332,8.0,13.0,96,0.00,,OVC029,0.26,69.00,VWS V14.00,2013-03-10 21:10:00,
2013-03-10 16:13:00,33.5,32.5,29.73,North,9,5.0,11.0,96,0.00,,,0.26,54.00,VWS V14.00,2013-03-10 21:13:00,
2013-03-10 16:14:00,33.5,32.5,29.73,NNW,331,6.0,8.0,96,0.00,,,0.26,51.00,VWS V14.00,2013-03-10 21:14:00,
2013-03-10 16:15:00,33.5,32.5,29.73,North,355,5.0,9.0,96,0.00,,,0.26,51.00,VWS V14.00,2013-03-10 21:15:00,
2013-03-10 16:18:00,33.5,32.5,29.73,NW,324,6.0,13.0,96,0.00,,,0.26,44.00,VWS V14.00,2013-03-10 21:18:00,
2013-03-10 16:19:00,33.5,32.5,29.73,NNW,341,10.0,10.0,96,0.00,,,0.26,42.00,VWS V14.00,2013-03-10 21:19:00,
2013-03-10 16:20:00,33.5,32.5,29.73,NNW,346,9.0,10.0,96,0.00,,,0.26,42.00,VWS V14.00,2013-03-10 21:20:00,
2013-03-10 16:23:00,33.5,32.5,29.73,NNW,345,6.0,12.0,96,0.00,,,0.26,44.00,VWS V14.00,2013-03-10 21:23:00,
2013-03-10 16:25:00,33.5,32.5,29.73,North,355,9.0,12.0,96,0.00,,,0.26,44.00,VWS V14.00,2013-03-10 21:25:00,
2013-03-10 16:28:00,33.4,32.4,29.73,NNW,348,7.0,14.0,96,0.00,,,0.26,37.00,VWS V14.00,2013-03-10 21:28:00,
2013-03-10 16:30:00,33.4,32.4,29.73,NNW,333,8.0,12.0,96,0.00,,,0.26,39.00,VWS V14.00,2013-03-10 21:30:00,
2013-03-10 16:33:00,33.4,32.4,29.73,North,360,5.0,14.0,96,0.00,,,0.26,42.00,VWS V14.00,2013-03-10 21:33:00,
2013-03-10 16:35:00,33.4,32.4,29.73,NNE,24,9.0,12.0,96,0.00,,,0.26,44.00,VWS V14.00,2013-03-10 21:35:00,
2013-03-10 16:38:00,33.4,32.4,29.73,North,355,13.0,13.0,96,0.00,,,0.26,42.00,VWS V14.00,2013-03-10 21:38:00,
2013-03-10 16:40:00,33.4,32.4,29.73,North,360,8.0,13.0,96,0.00,,,0.26,42.00,VWS V14.00,2013-03-10 21:40:00,
2013-03-10 16:43:00,33.4,32.4,29.73,NNW,336,6.0,13.0,96,0.00,,,0.26,39.00,VWS V14.00,2013-03-10 21:43:00,
2013-03-10 16:45:00,33.4,32.4,29.73,NNW,344,6.0,9.0,96,0.00,,,0.26,37.00,VWS V14.00,2013-03-10 21:45:00,
2013-03-10 16:46:00,33.4,32.4,29.73,NNW,329,9.0,11.0,96,0.00,,,0.26,37.00,VWS V14.00,2013-03-10 21:46:00,
2013-03-10 16:48:00,33.4,32.4,29.73,NW,320,7.0,14.0,96,0.00,,,0.26,32.00,VWS V14.00,2013-03-10 21:48:00,
2013-03-10 16:50:00,33.3,32.3,29.73,North,5,7.0,18.0,96,0.00,,,0.26,30.00,VWS V14.00,2013-03-10 21:50:00,
2013-03-10 16:52:00,33.4,32.4,29.73,NNW,333,6.0,18.0,96,0.00,,,0.26,33.00,VWS V14.00,2013-03-10 21:52:00,
2013-03-10 16:53:00,33.3,32.3,29.73,NW,319,13.0,18.0,96,0.00,,,0.26,35.00,VWS V14.00,2013-03-10 21:53:00,
2013-03-10 16:55:00,33.4,32.4,29.73,NNW,333,5.0,14.0,96,0.00,,,0.26,42.00,VWS V14.00,2013-03-10 21:55:00,
2013-03-10 16:57:00,33.3,32.3,29.73,North,9,10.0,14.0,96,0.00,,,0.26,44.00,VWS V14.00,2013-03-10 21:57:00,
2013-03-10 16:58:00,33.4,32.4,29.73,NNW,344,8.0,14.0,96,0.00,,,0.26,44.00,VWS V14.00,2013-03-10 21:58:00,
2013-03-10 17:00:00,33.4,32.4,29.73,NNW,334,4.0,8.0,96,0.00,,,0.26,46.00,VWS V14.00,2013-03-10 22:00:00,
2013-03-10 17:02:00,33.4,32.6,29.73,NNW,331,5.0,14.0,97,0.00,,,0.26,44.00,VWS V14.00,2013-03-10 22:02:00,
2013-03-10 17:04:00,33.4,32.6,29.73,North,360,7.0,14.0,97,0.00,,,0.26,44.00,VWS V14.00,2013-03-10 22:04:00,
2013-03-10 17:05:00,33.4,32.6,29.73,North,350,5.0,8.0,97,0.00,,,0.26,44.00,VWS V14.00,2013-03-10 22:05:00,
2013-03-10 17:06:00,33.4,32.6,29.73,NNW,341,7.0,10.0,97,0.00,,,0.26,44.00,VWS V14.00,2013-03-10 22:06:00,
2013-03-10 17:08:00,33.4,32.6,29.73,NW,320,5.0,12.0,97,0.00,,,0.26,44.00,VWS V14.00,2013-03-10 22:08:00,
2013-03-10 17:09:00,33.4,32.6,29.73,NNW,340,7.0,12.0,97,0.00,,,0.26,44.00,VWS V14.00,2013-03-10 22:09:00,
2013-03-10 17:10:00,33.4,32.6,29.73,North,360,11.0,17.0,97,0.00,,,0.26,42.00,VWS V14.00,2013-03-10 22:10:00,
2013-03-10 17:11:00,33.4,32.6,29.73,NNW,333,6.0,17.0,97,0.00,,,0.26,39.00,VWS V14.00,2013-03-10 22:11:00,
2013-03-10 17:13:00,33.4,32.6,29.73,North,355,11.0,17.0,97,0.00,,,0.26,37.00,VWS V14.00,2013-03-10 22:13:00,
2013-03-10 17:14:00,33.4,32.6,29.73,NNW,336,14.0,17.0,97,0.00,,,0.26,35.00,VWS V14.00,2013-03-10 22:14:00,
2013-03-10 17:15:00,33.4,32.6,29.73,NNW,346,12.0,17.0,97,0.00,,OVC029,0.26,35.00,VWS V14.00,2013-03-10 22:15:00,
2013-03-10 17:16:00,33.4,32.6,29.73,NNW,345,10.0,17.0,97,0.00,,,0.26,28.00,VWS V14.00,2013-03-10 22:16:00,
2013-03-10 17:17:00,33.4,32.6,29.73,North,5,9.0,17.0,97,0.00,,,0.26,28.00,VWS V14.00,2013-03-10 22:17:00,
2013-03-10 17:18:00,33.4,32.6,29.73,North,355,6.0,17.0,97,0.00,,,0.26,26.00,VWS V14.00,2013-03-10 22:18:00,
2013-03-10 17:19:00,33.3,32.5,29.73,North,9,8.0,17.0,97,0.00,,,0.26,26.00,VWS V14.00,2013-03-10 22:19:00,
2013-03-10 17:20:00,33.3,32.5,29.73,North,9,8.0,17.0,97,0.00,,OVC029,0.26,26.00,VWS V14.00,2013-03-10 22:20:00,
2013-03-10 17:21:00,33.3,32.5,29.73,NNW,327,7.0,13.0,97,0.00,,,0.26,25.00,VWS V14.00,2013-03-10 22:21:00,
2013-03-10 17:22:00,33.3,32.5,29.73,NNW,336,10.0,13.0,97,0.00,,,0.26,25.00,VWS V14.00,2013-03-10 22:22:00,
2013-03-10 17:23:00,33.3,32.5,29.73,North,355,9.0,15.0,97,0.00,,,0.26,25.00,VWS V14.00,2013-03-10 22:23:00,
2013-03-10 17:24:00,33.3,32.5,29.73,North,351,10.0,12.0,97,0.00,,,0.26,25.00,VWS V14.00,2013-03-10 22:24:00,
2013-03-10 17:25:00,33.3,32.5,29.73,NNW,338,12.0,15.0,97,0.00,,OVC029,0.26,25.00,VWS V14.00,2013-03-10 22:25:00,
2013-03-10 17:27:00,33.3,32.5,29.73,NNW,338,5.0,14.0,97,0.00,,,0.26,23.00,VWS V14.00,2013-03-10 22:27:00,
2013-03-10 17:29:00,33.3,32.5,29.74,NW,315,5.0,14.0,97,0.00,,,0.26,23.00,VWS V14.00,2013-03-10 22:29:00,
2013-03-10 17:30:00,33.3,32.5,29.74,NNW,344,8.0,14.0,97,0.00,,OVC029,0.26,23.00,VWS V14.00,2013-03-10 22:30:00,
2013-03-10 17:32:00,33.3,32.5,29.74,NNW,344,11.0,13.0,97,0.00,,,0.26,21.00,VWS V14.00,2013-03-10 22:32:00,
2013-03-10 17:33:00,33.3,32.5,29.74,NE,47,10.0,13.0,97,0.00,,,0.26,23.00,VWS V14.00,2013-03-10 22:33:00,
2013-03-10 17:34:00,33.3,32.5,29.74,North,360,7.0,13.0,97,0.00,,,0.26,23.00,VWS V14.00,2013-03-10 22:34:00,
2013-03-10 17:35:00,33.3,32.5,29.74,North,360,7.0,13.0,97,0.00,,OVC029,0.26,23.00,VWS V14.00,2013-03-10 22:35:00,
2013-03-10 17:37:00,33.3,32.5,29.74,NNW,348,10.0,13.0,97,0.00,,,0.26,26.00,VWS V14.00,2013-03-10 22:37:00,
2013-03-10 17:38:00,33.3,32.5,29.74,NW,325,7.0,13.0,97,0.00,,,0.26,26.00,VWS V14.00,2013-03-10 22:38:00,
2013-03-10 17:39:00,33.3,32.5,29.74,NNE,19,14.0,14.0,97,0.00,,,0.26,28.00,VWS V14.00,2013-03-10 22:39:00,
2013-03-10 17:40:00,33.3,32.5,29.74,NNE,19,14.0,14.0,97,0.00,,OVC029,0.26,28.00,VWS V14.00,2013-03-10 22:40:00,
2013-03-10 17:43:00,33.3,32.5,29.74,NNW,328,6.0,16.0,97,0.00,,,0.26,28.00,VWS V14.00,2013-03-10 22:43:00,
2013-03-10 17:44:00,33.3,32.5,29.74,North,355,11.0,16.0,97,0.00,,,0.26,26.00,VWS V14.00,2013-03-10 22:44:00,
2013-03-10 17:45:00,33.3,32.5,29.74,North,355,11.0,16.0,97,0.00,,OVC029,0.26,26.00,VWS V14.00,2013-03-10 22:45:00,
2013-03-10 17:48:00,33.3,32.5,29.74,NNW,340,5.0,11.0,97,0.00,,,0.26,18.00,VWS V14.00,2013-03-10 22:48:00,
2013-03-10 17:49:00,33.3,32.5,29.74,North,355,8.0,11.0,97,0.00,,,0.26,18.00,VWS V14.00,2013-03-10 22:49:00,
2013-03-10 17:50:00,33.3,32.5,29.74,North,355,8.0,11.0,97,0.00,,OVC029,0.26,18.00,VWS V14.00,2013-03-10 22:50:00,
2013-03-10 17:53:00,33.3,32.5,29.74,NNW,330,5.0,12.0,97,0.00,,,0.26,18.00,VWS V14.00,2013-03-10 22:53:00,
2013-03-10 17:54:00,33.3,32.5,29.74,North,360,5.0,7.0,97,0.00,,,0.26,18.00,VWS V14.00,2013-03-10 22:54:00,
2013-03-10 17:55:00,33.2,32.4,29.74,NW,323,4.0,10.0,97,0.00,,,0.26,16.00,VWS V14.00,2013-03-10 22:55:00,
2013-03-10 17:58:00,33.2,32.4,29.74,North,5,6.0,11.0,97,0.00,,,0.26,16.00,VWS V14.00,2013-03-10 22:58:00,
2013-03-10 17:59:00,33.2,32.4,29.74,NW,324,6.0,7.0,97,0.00,,,0.26,16.00,VWS V14.00,2013-03-10 22:59:00,
2013-03-10 18:00:00,33.2,32.4,29.73,NW,325,7.0,8.0,97,0.00,,,0.26,16.00,VWS V14.00,2013-03-10 23:00:00,
2013-03-10 18:04:00,33.2,32.4,29.73,NE,40,6.0,12.0,97,0.00,,,0.26,16.00,VWS V14.00,2013-03-10 23:04:00,
2013-03-10 18:05:00,33.2,32.4,29.73,NNW,333,6.0,11.0,97,0.00,,,0.26,16.00,VWS V14.00,2013-03-10 23:05:00,
2013-03-10 18:09:00,33.2,32.4,29.74,NNW,338,9.0,9.0,97,0.00,,,0.26,14.00,VWS V14.00,2013-03-10 23:09:00,
2013-03-10 18:10:00,33.2,32.4,29.73,North,11,9.0,13.0,97,0.00,,,0.26,14.00,VWS V14.00,2013-03-10 23:10:00,
2013-03-10 18:11:00,33.2,32.4,29.73,North,360,6.0,13.0,97,0.00,,,0.26,14.00,VWS V14.00,2013-03-10 23:11:00,
2013-03-10 18:14:00,33.2,32.4,29.73,North,9,10.0,10.0,97,0.00,,,0.26,16.00,VWS V14.00,2013-03-10 23:14:00,
2013-03-10 18:15:00,33.2,32.4,29.73,NNW,331,8.0,12.0,97,0.00,,,0.26,16.00,VWS V14.00,2013-03-10 23:15:00,
2013-03-10 18:17:00,33.2,32.4,29.73,North,355,4.0,12.0,97,0.00,,,0.26,16.00,VWS V14.00,2013-03-10 23:17:00,
2013-03-10 18:19:00,33.2,32.4,29.74,NNW,340,5.0,6.0,97,0.00,,,0.26,12.00,VWS V14.00,2013-03-10 23:19:00,
2013-03-10 18:20:00,33.2,32.4,29.74,NNW,339,4.0,12.0,97,0.00,,,0.26,12.00,VWS V14.00,2013-03-10 23:20:00,
2013-03-10 18:22:00,33.2,32.4,29.74,NNW,345,4.0,12.0,97,0.00,,,0.26,12.00,VWS V14.00,2013-03-10 23:22:00,
2013-03-10 18:24:00,33.2,32.4,29.74,NNW,330,6.0,11.0,97,0.00,,,0.26,11.00,VWS V14.00,2013-03-10 23:24:00,
2013-03-10 18:25:00,33.2,32.4,29.74,NW,321,7.0,12.0,97,0.00,,,0.26,9.00,VWS V14.00,2013-03-10 23:25:00,
2013-03-10 18:27:00,33.2,32.4,29.74,NW,312,6.0,14.0,97,0.00,,,0.26,9.00,VWS V14.00,2013-03-10 23:27:00,
2013-03-10 18:29:00,33.2,32.4,29.74,NNW,340,5.0,7.0,97,0.00,,,0.26,7.00,VWS V14.00,2013-03-10 23:29:00,
2013-03-10 18:30:00,33.2,32.4,29.74,NW,316,7.0,14.0,97,0.00,,OVC029,0.26,7.00,VWS V14.00,2013-03-10 23:30:00,
2013-03-10 18:31:00,33.2,32.4,29.74,NNW,340,13.0,17.0,97,0.00,,,0.26,7.00,VWS V14.00,2013-03-10 23:31:00,
2013-03-10 18:32:00,33.2,32.4,29.74,North,5,11.0,17.0,97,0.00,,,0.26,7.00,VWS V14.00,2013-03-10 23:32:00,
2013-03-10 18:34:00,33.2,32.4,29.74,North,355,8.0,11.0,97,0.00,,,0.26,7.00,VWS V14.00,2013-03-10 23:34:00,
2013-03-10 18:35:00,33.2,32.4,29.74,NNW,333,8.0,17.0,97,0.00,,OVC029,0.26,5.00,VWS V14.00,2013-03-10 23:35:00,
2013-03-10 18:37:00,33.2,32.4,29.74,NNW,345,12.0,13.0,97,0.00,,,0.26,7.00,VWS V14.00,2013-03-10 23:37:00,
2013-03-10 18:40:00,33.2,32.4,29.74,NNW,348,5.0,13.0,97,0.00,,,0.26,5.00,VWS V14.00,2013-03-10 23:40:00,
2013-03-10 18:42:00,33.2,32.4,29.74,NNW,348,9.0,15.0,97,0.00,,,0.26,5.00,VWS V14.00,2013-03-10 23:42:00,
2013-03-10 18:45:00,33.2,32.4,29.74,NNW,336,9.0,12.0,97,0.00,,,0.26,0.00,VWS V14.00,2013-03-10 23:45:00,
2013-03-10 18:47:00,33.2,32.4,29.74,North,9,11.0,14.0,97,0.00,,,0.26,0.00,VWS V14.00,2013-03-10 23:47:00,
2013-03-10 18:48:00,33.2,32.4,29.74,NNW,337,9.0,14.0,97,0.00,,,0.26,0.00,VWS V14.00,2013-03-10 23:48:00,
2013-03-10 18:50:00,33.2,32.4,29.74,NNW,340,9.0,9.0,97,0.00,,,0.26,0.00,VWS V14.00,2013-03-10 23:50:00,
2013-03-10 18:52:00,33.2,32.2,29.74,NNE,20,11.0,13.0,96,0.00,,,0.26,0.00,VWS V14.00,2013-03-10 23:52:00,
2013-03-10 18:53:00,33.2,32.2,29.74,NNW,343,9.0,13.0,96,0.00,,,0.26,0.00,VWS V14.00,2013-03-10 23:53:00,
2013-03-10 18:55:00,33.2,32.2,29.74,NNW,348,9.0,14.0,96,0.00,,,0.26,0.00,VWS V14.00,2013-03-10 23:55:00,
2013-03-10 18:57:00,33.2,32.2,29.74,NNW,341,9.0,14.0,96,0.00,,,0.26,0.00,VWS V14.00,2013-03-10 23:57:00,
2013-03-10 18:58:00,33.2,32.2,29.74,NNW,344,8.0,14.0,96,0.00,,,0.26,0.00,VWS V14.00,2013-03-10 23:58:00,
2013-03-10 19:00:00,33.2,32.2,29.74,NW,306,6.0,12.0,96,0.00,,,0.26,0.00,VWS V14.00,2013-03-11 00:00:00,
2013-03-10 19:03:00,33.2,32.2,29.75,NNW,332,9.0,16.0,96,0.00,,,0.26,0.00,VWS V14.00,2013-03-11 00:03:00,
2013-03-10 19:05:00,33.2,32.2,29.74,NNW,345,14.0,16.0,96,0.00,,,0.26,0.00,VWS V14.00,2013-03-11 00:05:00,
2013-03-10 19:08:00,33.2,32.2,29.75,NW,325,12.0,16.0,96,0.00,,,0.26,0.00,VWS V14.00,2013-03-11 00:08:00,
2013-03-10 19:10:00,33.2,32.2,29.75,North,9,9.0,12.0,96,0.00,,,0.26,0.00,VWS V14.00,2013-03-11 00:10:00,
2013-03-10 19:11:00,33.2,32.2,29.75,NNW,347,12.0,12.0,96,0.00,,,0.26,0.00,VWS V14.00,2013-03-11 00:11:00,
2013-03-10 19:13:00,33.2,32.2,29.75,NNW,333,7.0,13.0,96,0.00,,,0.26,0.00,VWS V14.00,2013-03-11 00:13:00,
2013-03-10 19:14:00,33.2,32.2,29.75,NNW,348,12.0,13.0,96,0.00,,,0.26,0.00,VWS V14.00,2013-03-11 00:14:00,
2013-03-10 19:15:00,33.2,32.2,29.75,North,9,11.0,14.0,96,0.00,,,0.26,0.00,VWS V14.00,2013-03-11 00:15:00,
2013-03-10 19:16:00,33.2,32.2,29.75,North,355,6.0,14.0,96,0.00,,,0.26,0.00,VWS V14.00,2013-03-11 00:16:00,
2013-03-10 19:18:00,33.2,32.2,29.75,North,350,8.0,14.0,96,0.00,,,0.26,0.00,VWS V14.00,2013-03-11 00:18:00,
2013-03-10 19:19:00,33.2,32.2,29.75,NNW,342,8.0,9.0,96,0.00,,,0.26,0.00,VWS V14.00,2013-03-11 00:19:00,
2013-03-10 19:20:00,33.2,32.2,29.75,NNW,342,9.0,14.0,96,0.00,,OVC029,0.26,0.00,VWS V14.00,2013-03-11 00:20:00,
2013-03-10 19:21:00,33.2,32.2,29.75,NE,34,9.0,17.0,96,0.00,,OVC008,0.26,0.00,VWS V14.00,2013-03-11 00:21:00,
2013-03-10 19:22:00,33.2,32.2,29.75,North,355,10.0,17.0,96,0.00,,OVC008,0.26,0.00,VWS V14.00,2013-03-11 00:22:00,
2013-03-10 19:23:00,33.2,32.2,29.75,North,350,8.0,17.0,96,0.00,,OVC008,0.26,0.00,VWS V14.00,2013-03-11 00:23:00,
2013-03-10 19:24:00,33.2,32.2,29.75,North,9,9.0,9.0,96,0.00,,OVC008,0.26,0.00,VWS V14.00,2013-03-11 00:24:00,
2013-03-10 19:25:00,33.2,32.2,29.75,NNW,342,7.0,17.0,96,0.00,,OVC029,0.26,0.00,VWS V14.00,2013-03-11 00:25:00,
2013-03-10 19:27:00,33.2,32.2,29.75,North,5,12.0,15.0,96,0.00,,OVC008,0.26,0.00,VWS V14.00,2013-03-11 00:27:00,
2013-03-10 19:28:00,33.2,32.2,29.75,NNW,348,7.0,15.0,96,0.00,,OVC008,0.26,0.00,VWS V14.00,2013-03-11 00:28:00,
2013-03-10 19:29:00,33.2,32.2,29.75,NW,316,11.0,11.0,96,0.00,,OVC008,0.26,0.00,VWS V14.00,2013-03-11 00:29:00,
2013-03-10 19:30:00,33.2,32.2,29.75,NW,317,6.0,15.0,96,0.00,,OVC029,0.26,0.00,VWS V14.00,2013-03-11 00:30:00,
2013-03-10 19:32:00,33.1,32.1,29.75,North,355,8.0,14.0,96,0.00,,OVC008,0.26,0.00,VWS V14.00,2013-03-11 00:32:00,
2013-03-10 19:34:00,33.1,32.1,29.75,NNE,22,14.0,14.0,96,0.00,,OVC008,0.26,0.00,VWS V14.00,2013-03-11 00:34:00,
2013-03-10 19:35:00,33.1,32.1,29.75,NNW,336,14.0,19.0,96,0.00,,OVC008,0.26,0.00,VWS V14.00,2013-03-11 00:35:00,
2013-03-10 19:37:00,33.1,32.1,29.75,North,350,8.0,19.0,96,0.00,,OVC008,0.26,0.00,VWS V14.00,2013-03-11 00:37:00,
2013-03-10 19:38:00,33.1,32.1,29.75,NNW,329,6.0,19.0,96,0.00,,OVC008,0.26,0.00,VWS V14.00,2013-03-11 00:38:00,
2013-03-10 19:39:00,33.1,32.1,29.75,North,355,9.0,11.0,96,0.00,,OVC008,0.26,0.00,VWS V14.00,2013-03-11 00:39:00,
2013-03-10 19:40:00,33.1,32.1,29.75,NNW,345,13.0,13.0,96,0.00,,OVC010,0.26,0.00,VWS V14.00,2013-03-11 00:40:00,
2013-03-10 19:42:00,33.1,32.1,29.75,NW,323,12.0,16.0,96,0.00,,OVC010,0.26,0.00,VWS V14.00,2013-03-11 00:42:00,
2013-03-10 19:43:00,33.1,32.1,29.75,NNW,332,7.0,16.0,96,0.00,,OVC010,0.26,0.00,VWS V14.00,2013-03-11 00:43:00,
2013-03-10 19:44:00,33.1,32.1,29.75,NNW,329,5.0,9.0,96,0.00,,OVC010,0.26,0.00,VWS V14.00,2013-03-11 00:44:00,
2013-03-10 19:45:00,33.0,32.0,29.75,North,355,7.0,10.0,96,0.00,,OVC010,0.26,0.00,VWS V14.00,2013-03-11 00:45:00,
2013-03-10 19:48:00,33.1,32.1,29.75,NNW,347,9.0,13.0,96,0.00,,OVC010,0.26,0.00,VWS V14.00,2013-03-11 00:48:00,
2013-03-10 19:50:00,33.0,32.0,29.75,NW,326,7.0,11.0,96,0.00,,OVC010,0.26,0.00,VWS V14.00,2013-03-11 00:50:00,
2013-03-10 19:53:00,33.0,32.0,29.75,NNW,333,12.0,15.0,96,0.00,,OVC010,0.26,0.00,VWS V14.00,2013-03-11 00:53:00,
2013-03-10 19:55:00,33.0,32.0,29.75,North,5,14.0,14.0,96,0.00,,OVC010,0.26,0.00,VWS V14.00,2013-03-11 00:55:00,
2013-03-10 19:56:00,33.0,32.0,29.75,North,349,10.0,14.0,96,0.00,,OVC010,0.26,0.00,VWS V14.00,2013-03-11 00:56:00,
2013-03-10 19:58:00,33.0,32.0,29.75,NNW,331,8.0,14.0,96,0.00,,OVC010,0.26,0.00,VWS V14.00,2013-03-11 00:58:00,
2013-03-10 19:59:00,33.0,32.0,29.75,North,360,9.0,10.0,96,0.00,,OVC010,0.26,0.00,VWS V14.00,2013-03-11 00:59:00,
2013-03-10 20:00:00,33.0,32.0,29.75,NNW,335,6.0,14.0,96,0.00,,OVC010,0.26,0.00,VWS V14.00,2013-03-11 01:00:00,
2013-03-10 20:01:00,33.0,32.0,29.75,ENE,59,5.0,14.0,96,0.00,,OVC010,0.26,0.00,VWS V14.00,2013-03-11 01:01:00,
2013-03-10 20:03:00,33.0,32.0,29.75,NNW,327,8.0,14.0,96,0.00,,OVC010,0.26,0.00,VWS V14.00,2013-03-11 01:03:00,
2013-03-10 20:04:00,33.0,32.0,29.75,NNW,338,8.0,9.0,96,0.00,,OVC010,0.26,0.00,VWS V14.00,2013-03-11 01:04:00,
2013-03-10 20:05:00,33.0,32.0,29.75,NNW,333,8.0,13.0,96,0.00,,OVC010,0.26,0.00,VWS V14.00,2013-03-11 01:05:00,
2013-03-10 20:07:00,33.0,32.0,29.75,NNE,31,11.0,14.0,96,0.00,,OVC010,0.26,0.00,VWS V14.00,2013-03-11 01:07:00,
2013-03-10 20:09:00,32.9,32.1,29.75,NNW,348,10.0,12.0,97,0.00,,OVC010,0.26,0.00,VWS V14.00,2013-03-11 01:09:00,
2013-03-10 20:10:00,32.9,32.1,29.75,NNW,328,6.0,12.0,97,0.00,,OVC010,0.26,0.00,VWS V14.00,2013-03-11 01:10:00,
2013-03-10 20:12:00,32.9,32.1,29.75,NNW,333,10.0,12.0,97,0.00,,OVC010,0.26,0.00,VWS V14.00,2013-03-11 01:12:00,
2013-03-10 20:14:00,32.9,32.1,29.75,NNW,339,5.0,7.0,97,0.00,,OVC010,0.26,0.00,VWS V14.00,2013-03-11 01:14:00,
2013-03-10 20:15:00,32.9,31.9,29.75,NNW,338,9.0,11.0,96,0.00,,OVC010,0.26,0.00,VWS V14.00,2013-03-11 01:15:00,
2013-03-10 20:17:00,32.9,31.9,29.75,NNE,26,7.0,11.0,96,0.00,,OVC010,0.26,0.00,VWS V14.00,2013-03-11 01:17:00,
2013-03-10 20:19:00,32.9,31.9,29.75,NNW,346,8.0,8.0,96,0.00,,OVC010,0.26,0.00,VWS V14.00,2013-03-11 01:19:00,
2013-03-10 20:20:00,32.9,31.9,29.75,NNW,339,7.0,10.0,96,0.00,,OVC010,0.26,0.00,VWS V14.00,2013-03-11 01:20:00,
2013-03-10 20:23:00,32.9,31.9,29.75,NNW,336,12.0,15.0,96,0.00,,OVC010,0.26,0.00,VWS V14.00,2013-03-11 01:23:00,
2013-03-10 20:24:00,32.9,31.9,29.75,NNW,339,11.0,14.0,96,0.00,,OVC010,0.26,0.00,VWS V14.00,2013-03-11 01:24:00,
2013-03-10 20:25:00,32.9,31.9,29.75,NW,311,9.0,18.0,96,0.00,,OVC010,0.26,0.00,VWS V14.00,2013-03-11 01:25:00,
2013-03-10 20:28:00,32.8,31.8,29.75,NW,306,6.0,18.0,96,0.00,,OVC010,0.26,0.00,VWS V14.00,2013-03-11 01:28:00,
2013-03-10 20:29:00,32.8,31.8,29.75,North,360,8.0,12.0,96,0.00,,OVC010,0.26,0.00,VWS V14.00,2013-03-11 01:29:00,
2013-03-10 20:30:00,32.8,31.8,29.75,NW,313,9.0,17.0,96,0.00,,OVC010,0.26,0.00,VWS V14.00,2013-03-11 01:30:00,
2013-03-10 20:31:00,32.8,31.8,29.75,NNW,341,13.0,17.0,96,0.00,,OVC010,0.26,0.00,VWS V14.00,2013-03-11 01:31:00,
2013-03-10 20:33:00,32.8,31.8,29.75,NW,319,10.0,17.0,96,0.00,,OVC010,0.26,0.00,VWS V14.00,2013-03-11 01:33:00,
2013-03-10 20:35:00,32.7,31.7,29.75,North,351,6.0,12.0,96,0.00,,OVC010,0.26,0.00,VWS V14.00,2013-03-11 01:35:00,
2013-03-10 20:38:00,32.7,31.7,29.75,NNW,338,9.0,15.0,96,0.00,,OVC010,0.26,0.00,VWS V14.00,2013-03-11 01:38:00,
2013-03-10 20:40:00,32.7,31.7,29.75,NNW,346,6.0,13.0,96,0.00,,OVC008,0.26,0.00,VWS V14.00,2013-03-11 01:40:00,
2013-03-10 20:43:00,32.7,31.7,29.75,North,360,5.0,15.0,96,0.00,,OVC008,0.26,0.00,VWS V14.00,2013-03-11 01:43:00,
2013-03-10 20:45:00,32.6,31.6,29.75,North,355,9.0,15.0,96,0.00,,OVC008,0.26,0.00,VWS V14.00,2013-03-11 01:45:00,
2013-03-10 20:48:00,32.6,31.6,29.75,NNE,19,12.0,15.0,96,0.00,,OVC008,0.26,0.00,VWS V14.00,2013-03-11 01:48:00,
2013-03-10 20:49:00,32.6,31.6,29.75,NNW,330,6.0,15.0,96,0.00,,OVC008,0.26,0.00,VWS V14.00,2013-03-11 01:49:00,
2013-03-10 20:50:00,32.6,31.8,29.75,NNW,343,7.0,13.0,97,0.00,,OVC008,0.26,0.00,VWS V14.00,2013-03-11 01:50:00,
2013-03-10 20:53:00,32.6,31.8,29.75,NNW,346,14.0,15.0,97,0.00,,OVC008,0.26,0.00,VWS V14.00,2013-03-11 01:53:00,
2013-03-10 20:54:00,32.6,31.8,29.75,North,5,16.0,17.0,97,0.00,,OVC008,0.26,0.00,VWS V14.00,2013-03-11 01:54:00,
2013-03-10 20:55:00,32.6,31.8,29.76,North,5,6.0,15.0,97,0.00,,OVC008,0.26,0.00,VWS V14.00,2013-03-11 01:55:00,
2013-03-10 20:58:00,32.5,31.7,29.75,NNW,335,6.0,15.0,97,0.00,,OVC008,0.26,0.00,VWS V14.00,2013-03-11 01:58:00,
2013-03-10 20:59:00,32.6,31.8,29.75,North,360,6.0,17.0,97,0.00,,OVC008,0.26,0.00,VWS V14.00,2013-03-11 01:59:00,
2013-03-10 21:00:00,32.6,31.8,29.75,North,360,6.0,17.0,97,0.00,,OVC029,0.26,0.00,VWS V14.00,2013-03-11 02:00:00,
2013-03-10 21:01:00,32.5,31.7,29.76,NNW,340,7.0,11.0,97,0.00,,OVC008,0.26,0.00,VWS V14.00,2013-03-11 02:01:00,
2013-03-10 21:03:00,32.5,31.7,29.76,North,360,11.0,16.0,97,0.00,,OVC008,0.26,0.00,VWS V14.00,2013-03-11 02:03:00,
2013-03-10 21:04:00,32.5,31.7,29.76,North,5,11.0,16.0,97,0.00,,OVC008,0.26,0.00,VWS V14.00,2013-03-11 02:04:00,
2013-03-10 21:05:00,32.5,31.8,29.76,North,5,11.0,16.0,97,0.00,,OVC029,0.26,0.00,VWS V14.00,2013-03-11 02:05:00,
2013-03-10 21:06:00,32.5,31.7,29.76,NNE,17,0.0,11.0,97,0.00,,OVC008,0.26,0.00,VWS V14.00,2013-03-11 02:06:00,
2013-03-10 21:08:00,32.5,31.5,29.76,North,360,0.0,11.0,96,0.00,,OVC008,0.26,0.00,VWS V14.00,2013-03-11 02:08:00,
2013-03-10 21:09:00,32.5,31.5,29.76,North,355,0.0,0.0,96,0.00,,OVC008,0.26,0.00,VWS V14.00,2013-03-11 02:09:00,
2013-03-10 21:10:00,32.5,31.5,29.76,WNW,300,0.0,11.0,96,0.00,,OVC029,0.26,0.00,VWS V14.00,2013-03-11 02:10:00,
2013-03-10 21:11:00,32.4,31.4,29.76,NNW,329,0.0,0.0,96,0.00,,OVC008,0.26,0.00,VWS V14.00,2013-03-11 02:11:00,
2013-03-10 21:12:00,32.4,31.4,29.76,North,355,0.0,0.0,96,0.00,,OVC008,0.26,0.00,VWS V14.00,2013-03-11 02:12:00,
2013-03-10 21:14:00,32.4,31.4,29.76,NNW,336,0.0,0.0,96,0.00,,OVC008,0.26,0.00,VWS V14.00,2013-03-11 02:14:00,
2013-03-10 21:15:00,32.4,31.4,29.76,NNW,340,0.0,0.0,96,0.00,,OVC029,0.26,0.00,VWS V14.00,2013-03-11 02:15:00,
2013-03-10 21:17:00,32.4,31.6,29.76,NNE,16,0.0,0.0,97,0.00,,OVC008,0.26,0.00,VWS V14.00,2013-03-11 02:17:00,
2013-03-10 21:19:00,32.4,31.6,29.76,NNW,337,0.0,0.0,97,0.00,,OVC008,0.26,0.00,VWS V14.00,2013-03-11 02:19:00,
2013-03-10 21:20:00,32.4,31.6,29.76,NNW,337,0.0,0.0,97,0.00,,SCT110,0.26,0.00,VWS V14.00,2013-03-11 02:20:00,
2013-03-10 21:22:00,32.3,31.5,29.76,NW,323,0.0,0.0,97,0.00,,OVC012,0.26,0.00,VWS V14.00,2013-03-11 02:22:00,
2013-03-10 21:23:00,32.3,31.5,29.76,NNW,348,0.0,0.0,97,0.00,,OVC012,0.26,0.00,VWS V14.00,2013-03-11 02:23:00,
2013-03-10 21:24:00,32.3,31.5,29.76,NNW,331,0.0,0.0,97,0.00,,OVC012,0.26,0.00,VWS V14.00,2013-03-11 02:24:00,
2013-03-10 21:25:00,32.3,31.5,29.76,NNW,342,0.0,0.0,97,0.00,,OVC012,0.26,0.00,VWS V14.00,2013-03-11 02:25:00,
2013-03-10 21:27:00,32.3,31.3,29.77,North,355,0.0,0.0,96,0.00,,OVC012,0.26,0.00,VWS V14.00,2013-03-11 02:27:00,
2013-03-10 21:28:00,32.3,31.3,29.77,North,355,0.0,0.0,96,0.00,,OVC012,0.26,0.00,VWS V14.00,2013-03-11 02:28:00,
2013-03-10 21:29:00,32.3,31.3,29.77,North,360,0.0,0.0,96,0.00,,OVC012,0.26,0.00,VWS V14.00,2013-03-11 02:29:00,
2013-03-10 21:30:00,32.2,31.2,29.77,NNW,336,0.0,0.0,96,0.00,,OVC012,0.26,0.00,VWS V14.00,2013-03-11 02:30:00,
2013-03-10 21:32:00,32.2,31.2,29.77,NNW,342,0.0,0.0,96,0.00,,OVC012,0.26,0.00,VWS V14.00,2013-03-11 02:32:00,
2013-03-10 21:33:00,32.2,31.2,29.77,NNW,346,0.0,0.0,96,0.00,,OVC012,0.26,0.00,VWS V14.00,2013-03-11 02:33:00,
2013-03-10 21:34:00,32.2,31.2,29.77,NNW,346,0.0,0.0,96,0.00,,OVC012,0.26,0.00,VWS V14.00,2013-03-11 02:34:00,
2013-03-10 21:35:00,32.2,31.2,29.77,NW,325,0.0,0.0,96,0.00,,OVC012,0.26,0.00,VWS V14.00,2013-03-11 02:35:00,
2013-03-10 21:37:00,32.1,31.1,29.77,North,355,0.0,0.0,96,0.00,,OVC012,0.26,0.00,VWS V14.00,2013-03-11 02:37:00,
2013-03-10 21:38:00,32.1,31.1,29.77,NNW,342,0.0,0.0,96,0.00,,OVC012,0.26,0.00,VWS V14.00,2013-03-11 02:38:00,
2013-03-10 21:39:00,32.1,31.1,29.77,NW,324,0.0,0.0,96,0.00,,OVC012,0.26,0.00,VWS V14.00,2013-03-11 02:39:00,
2013-03-10 21:40:00,32.1,31.1,29.77,NNW,341,0.0,0.0,96,0.00,,OVC012,0.26,0.00,VWS V14.00,2013-03-11 02:40:00,
2013-03-10 21:42:00,32.1,31.1,29.77,NNW,340,0.0,0.0,96,0.00,,OVC012,0.26,0.00,VWS V14.00,2013-03-11 02:42:00,
2013-03-10 21:43:00,32.1,31.1,29.77,North,350,0.0,0.0,96,0.00,,OVC012,0.26,0.00,VWS V14.00,2013-03-11 02:43:00,
2013-03-10 21:44:00,32.1,31.1,29.77,North,5,0.0,0.0,96,0.00,,OVC012,0.26,0.00,VWS V14.00,2013-03-11 02:44:00,
2013-03-10 21:45:00,32.1,31.1,29.77,NW,325,0.0,0.0,96,0.00,,OVC012,0.26,0.00,VWS V14.00,2013-03-11 02:45:00,
2013-03-10 21:48:00,32.1,31.1,29.77,NW,322,0.0,0.0,96,0.00,,OVC012,0.26,0.00,VWS V14.00,2013-03-11 02:48:00,
2013-03-10 21:49:00,32.0,31.0,29.77,NW,326,0.0,0.0,96,0.00,,OVC012,0.26,0.00,VWS V14.00,2013-03-11 02:49:00,
2013-03-10 21:50:00,32.0,31.0,29.77,NNW,328,0.0,0.0,96,0.00,,OVC012,0.26,0.00,VWS V14.00,2013-03-11 02:50:00,
2013-03-10 21:53:00,32.0,31.0,29.77,NW,316,0.0,0.0,96,0.00,,OVC012,0.26,0.00,VWS V14.00,2013-03-11 02:53:00,
2013-03-10 21:54:00,31.9,30.9,29.77,NNW,339,0.0,0.0,96,0.00,,OVC012,0.26,0.00,VWS V14.00,2013-03-11 02:54:00,
2013-03-10 21:55:00,31.9,30.9,29.77,NNW,339,0.0,0.0,96,0.00,,OVC029,0.26,0.00,VWS V14.00,2013-03-11 02:55:00,
2013-03-10 21:56:00,31.9,30.9,29.77,NNW,336,0.0,0.0,96,0.00,,OVC012,0.26,0.00,VWS V14.00,2013-03-11 02:56:00,
2013-03-10 21:58:00,31.9,30.9,29.77,North,355,0.0,0.0,96,0.00,,OVC012,0.26,0.00,VWS V14.00,2013-03-11 02:58:00,
2013-03-10 21:59:00,31.9,30.9,29.77,NW,315,0.0,0.0,96,0.00,,OVC012,0.26,0.00,VWS V14.00,2013-03-11 02:59:00,
2013-03-10 22:00:00,31.8,30.8,29.77,NNW,336,0.0,0.0,96,0.00,,OVC014,0.26,0.00,VWS V14.00,2013-03-11 03:00:00,
2013-03-10 22:01:00,31.8,30.8,29.77,NW,325,0.0,0.0,96,0.00,,OVC014,0.26,0.00,VWS V14.00,2013-03-11 03:01:00,
2013-03-10 22:03:00,31.8,30.8,29.77,North,5,0.0,0.0,96,0.00,,OVC014,0.26,0.00,VWS V14.00,2013-03-11 03:03:00,
2013-03-10 22:04:00,31.8,30.8,29.77,NNW,341,0.0,0.0,96,0.00,,OVC014,0.26,0.00,VWS V14.00,2013-03-11 03:04:00,
2013-03-10 22:05:00,31.7,30.7,29.77,NNW,336,0.0,0.0,96,0.00,,OVC014,0.26,0.00,VWS V14.00,2013-03-11 03:05:00,
2013-03-10 22:06:00,31.7,30.7,29.77,North,9,0.0,0.0,96,0.00,,OVC014,0.26,0.00,VWS V14.00,2013-03-11 03:06:00,
2013-03-10 22:08:00,31.7,30.7,29.77,NNW,339,0.0,0.0,96,0.00,,OVC014,0.26,0.00,VWS V14.00,2013-03-11 03:08:00,
2013-03-10 22:10:00,31.7,30.7,29.77,North,349,0.0,0.0,96,0.00,,OVC014,0.26,0.00,VWS V14.00,2013-03-11 03:10:00,
2013-03-10 22:11:00,31.7,30.7,29.78,NNW,330,0.0,0.0,96,0.00,,OVC014,0.26,0.00,VWS V14.00,2013-03-11 03:11:00,
2013-03-10 22:13:00,31.6,30.6,29.77,North,355,0.0,0.0,96,0.00,,OVC014,0.26,0.00,VWS V14.00,2013-03-11 03:13:00,
2013-03-10 22:15:00,31.6,30.6,29.77,NNW,346,0.0,0.0,96,0.00,,OVC014,0.26,0.00,VWS V14.00,2013-03-11 03:15:00,
2013-03-10 22:17:00,31.6,30.6,29.77,NNW,336,0.0,0.0,96,0.00,,OVC014,0.26,0.00,VWS V14.00,2013-03-11 03:17:00,
2013-03-10 22:18:00,31.5,30.5,29.77,NE,38,0.0,0.0,96,0.00,,OVC014,0.26,0.00,VWS V14.00,2013-03-11 03:18:00,
2013-03-10 22:20:00,31.5,30.5,29.77,North,355,0.0,0.0,96,0.00,,OVC014,0.26,0.00,VWS V14.00,2013-03-11 03:20:00,
2013-03-10 22:23:00,31.5,30.5,29.77,North,350,0.0,0.0,96,0.00,,OVC014,0.26,0.00,VWS V14.00,2013-03-11 03:23:00,
2013-03-10 22:25:00,31.5,30.5,29.77,NW,318,0.0,0.0,96,0.00,,OVC014,0.26,0.00,VWS V14.00,2013-03-11 03:25:00,
2013-03-10 22:28:00,31.5,30.5,29.77,NNW,347,0.0,0.0,96,0.00,,OVC014,0.26,0.00,VWS V14.00,2013-03-11 03:28:00,
2013-03-10 22:29:00,31.5,30.5,29.77,NNW,334,0.0,0.0,96,0.00,,OVC014,0.26,0.00,VWS V14.00,2013-03-11 03:29:00,
2013-03-10 22:30:00,31.4,30.4,29.78,NW,311,0.0,0.0,96,0.00,,OVC014,0.26,0.00,VWS V14.00,2013-03-11 03:30:00,
2013-03-10 22:33:00,31.4,30.4,29.78,North,350,0.0,0.0,96,0.00,,OVC014,0.26,0.00,VWS V14.00,2013-03-11 03:33:00,
2013-03-10 22:34:00,31.4,30.4,29.78,NNW,342,0.0,0.0,96,0.00,,OVC014,0.26,0.00,VWS V14.00,2013-03-11 03:34:00,
2013-03-10 22:35:00,31.4,30.4,29.77,North,5,0.0,0.0,96,0.00,,OVC014,0.26,0.00,VWS V14.00,2013-03-11 03:35:00,
2013-03-10 22:37:00,31.4,30.4,29.77,NNW,348,0.0,0.0,96,0.00,,OVC014,0.26,0.00,VWS V14.00,2013-03-11 03:37:00,
2013-03-10 22:38:00,31.4,30.4,29.78,North,9,0.0,0.0,96,0.00,,OVC014,0.26,0.00,VWS V14.00,2013-03-11 03:38:00,
2013-03-10 22:39:00,31.3,30.3,29.77,North,349,0.0,0.0,96,0.00,,OVC014,0.26,0.00,VWS V14.00,2013-03-11 03:39:00,
2013-03-10 22:40:00,31.3,30.3,29.78,NNW,327,0.0,0.0,96,0.00,,,0.26,0.00,VWS V14.00,2013-03-11 03:40:00,
2013-03-10 22:42:00,31.3,30.3,29.78,WNW,292,0.0,0.0,96,0.00,,,0.26,0.00,VWS V14.00,2013-03-11 03:42:00,
2013-03-10 22:43:00,31.3,30.3,29.78,NNW,345,0.0,0.0,96,0.00,,,0.26,0.00,VWS V14.00,2013-03-11 03:43:00,
2013-03-10 22:44:00,31.3,30.3,29.78,NW,322,0.0,0.0,96,0.00,,,0.26,0.00,VWS V14.00,2013-03-11 03:44:00,
2013-03-10 22:45:00,31.3,30.3,29.78,NW,326,0.0,0.0,96,0.00,,,0.26,0.00,VWS V14.00,2013-03-11 03:45:00,
2013-03-10 22:47:00,31.3,30.3,29.78,North,5,0.0,0.0,96,0.00,,,0.26,0.00,VWS V14.00,2013-03-11 03:47:00,
2013-03-10 22:48:00,31.3,30.3,29.78,NW,307,0.0,0.0,96,0.00,,,0.26,0.00,VWS V14.00,2013-03-11 03:48:00,
2013-03-10 22:49:00,31.2,30.2,29.78,NNW,340,0.0,0.0,96,0.00,,,0.26,0.00,VWS V14.00,2013-03-11 03:49:00,
2013-03-10 22:50:00,31.2,30.2,29.78,NNW,344,0.0,0.0,96,0.00,,OVC029,0.26,0.00,VWS V14.00,2013-03-11 03:50:00,
2013-03-10 22:51:00,31.2,30.2,29.78,North,5,0.0,0.0,96,0.00,,,0.26,0.00,VWS V14.00,2013-03-11 03:51:00,
2013-03-10 22:53:00,31.2,30.2,29.78,NE,35,0.0,0.0,96,0.00,,,0.26,0.00,VWS V14.00,2013-03-11 03:53:00,
2013-03-10 22:54:00,31.2,30.2,29.78,North,9,0.0,0.0,96,0.00,,,0.26,0.00,VWS V14.00,2013-03-11 03:54:00,
2013-03-10 22:55:00,31.2,30.2,29.78,North,9,0.0,0.0,96,0.00,,OVC029,0.26,0.00,VWS V14.00,2013-03-11 03:55:00,
2013-03-10 22:57:00,31.2,30.2,29.78,North,360,0.0,0.0,96,0.00,,,0.26,0.00,VWS V14.00,2013-03-11 03:57:00,
2013-03-10 22:58:00,31.2,30.2,29.78,NNW,328,0.0,0.0,96,0.00,,,0.26,0.00,VWS V14.00,2013-03-11 03:58:00,
2013-03-10 22:59:00,31.1,30.1,29.78,NW,325,0.0,0.0,96,0.00,,,0.26,0.00,VWS V14.00,2013-03-11 03:59:00,
2013-03-10 23:00:00,31.1,30.1,29.78,NNW,345,0.0,0.0,96,0.00,,,0.26,0.00,VWS V14.00,2013-03-11 04:00:00,
2013-03-10 23:05:00,31.1,30.1,29.79,North,355,0.0,0.0,96,0.00,,,0.26,0.00,VWS V14.00,2013-03-11 04:05:00,
2013-03-10 23:10:00,31.0,30.0,29.79,NNW,346,0.0,0.0,96,0.00,,,0.26,0.00,VWS V14.00,2013-03-11 04:10:00,
2013-03-10 23:11:00,31.0,30.0,29.79,NNW,334,0.0,0.0,96,0.00,,,0.26,0.00,VWS V14.00,2013-03-11 04:11:00,
2013-03-10 23:15:00,31.0,30.0,29.79,NNW,333,0.0,0.0,96,0.00,,,0.26,0.00,VWS V14.00,2013-03-11 04:15:00,
2013-03-10 23:17:00,31.0,30.0,29.79,NE,44,0.0,0.0,96,0.00,,,0.26,0.00,VWS V14.00,2013-03-11 04:17:00,
2013-03-10 23:20:00,31.0,30.0,29.79,NNW,346,0.0,0.0,96,0.00,,,0.26,0.00,VWS V14.00,2013-03-11 04:20:00,
2013-03-10 23:21:00,31.0,30.0,29.79,NNW,340,0.0,0.0,96,0.00,,,0.26,0.00,VWS V14.00,2013-03-11 04:21:00,
2013-03-10 23:22:00,31.0,30.0,29.79,NW,325,0.0,0.0,96,0.00,,,0.26,0.00,VWS V14.00,2013-03-11 04:22:00,
2013-03-10 23:25:00,30.9,29.9,29.79,NW,317,0.0,0.0,96,0.00,,,0.26,0.00,VWS V14.00,2013-03-11 04:25:00,
2013-03-10 23:26:00,30.9,29.9,29.79,NW,304,0.0,0.0,96,0.00,,,0.26,0.00,VWS V14.00,2013-03-11 04:26:00,
2013-03-10 23:28:00,30.9,29.9,29.79,NNW,334,0.0,0.0,96,0.00,,,0.26,0.00,VWS V14.00,2013-03-11 04:28:00,
2013-03-10 23:30:00,30.9,29.9,29.79,NW,325,0.0,0.0,96,0.00,,OVC029,0.26,0.00,VWS V14.00,2013-03-11 04:30:00,
2013-03-10 23:31:00,30.8,29.8,29.79,NNW,332,0.0,0.0,96,0.00,,,0.26,0.00,VWS V14.00,2013-03-11 04:31:00,
2013-03-10 23:32:00,30.8,29.8,29.79,NNW,336,0.0,0.0,96,0.00,,,0.26,0.00,VWS V14.00,2013-03-11 04:32:00,
2013-03-10 23:33:00,30.8,29.8,29.79,NW,317,0.0,0.0,96,0.00,,,0.26,0.00,VWS V14.00,2013-03-11 04:33:00,
2013-03-10 23:35:00,30.8,29.8,29.79,NNW,342,0.0,0.0,96,0.00,,OVC029,0.26,0.00,VWS V14.00,2013-03-11 04:35:00,
2013-03-10 23:36:00,30.8,29.8,29.79,NW,315,0.0,0.0,96,0.00,,,0.26,0.00,VWS V14.00,2013-03-11 04:36:00,
2013-03-10 23:37:00,30.8,29.8,29.79,North,355,0.0,0.0,96,0.00,,,0.26,0.00,VWS V14.00,2013-03-11 04:37:00,
2013-03-10 23:38:00,30.8,29.8,29.79,NNW,333,0.0,0.0,96,0.00,,,0.26,0.00,VWS V14.00,2013-03-11 04:38:00,
2013-03-10 23:40:00,30.8,29.8,29.79,North,5,0.0,0.0,96,0.00,,OVC029,0.26,0.00,VWS V14.00,2013-03-11 04:40:00,
2013-03-10 23:41:00,30.8,29.8,29.79,North,355,0.0,0.0,96,0.00,,OVC014,0.26,0.00,VWS V14.00,2013-03-11 04:41:00,
2013-03-10 23:42:00,30.8,29.8,29.79,North,5,0.0,0.0,96,0.00,,OVC014,0.26,0.00,VWS V14.00,2013-03-11 04:42:00,
2013-03-10 23:43:00,30.8,29.8,29.79,NW,321,0.0,0.0,96,0.00,,OVC014,0.26,0.00,VWS V14.00,2013-03-11 04:43:00,
2013-03-10 23:45:00,30.8,29.8,29.79,NNW,340,0.0,0.0,96,0.00,,OVC029,0.26,0.00,VWS V14.00,2013-03-11 04:45:00,
2013-03-10 23:46:00,30.7,29.7,29.79,NNW,331,0.0,0.0,96,0.00,,OVC014,0.26,0.00,VWS V14.00,2013-03-11 04:46:00,
2013-03-10 23:47:00,30.7,29.7,29.79,NW,321,0.0,0.0,96,0.00,,OVC014,0.26,0.00,VWS V14.00,2013-03-11 04:47:00,
2013-03-10 23:48:00,30.7,29.7,29.79,NW,325,0.0,0.0,96,0.00,,OVC014,0.26,0.00,VWS V14.00,2013-03-11 04:48:00,
2013-03-10 23:50:00,30.7,29.7,29.79,NW,323,0.0,0.0,96,0.00,,OVC029,0.26,0.00,VWS V14.00,2013-03-11 04:50:00,
2013-03-10 23:51:00,30.7,29.7,29.79,NNW,344,0.0,0.0,96,0.00,,OVC014,0.26,0.00,VWS V14.00,2013-03-11 04:51:00,
2013-03-10 23:52:00,30.7,29.7,29.79,NE,35,0.0,0.0,96,0.00,,OVC014,0.26,0.00,VWS V14.00,2013-03-11 04:52:00,
2013-03-10 23:53:00,30.7,29.7,29.79,NNW,333,0.0,0.0,96,0.00,,OVC014,0.26,0.00,VWS V14.00,2013-03-11 04:53:00,
2013-03-10 23:55:00,30.7,29.7,29.79,NW,319,0.0,0.0,96,0.00,,OVC029,0.26,0.00,VWS V14.00,2013-03-11 04:55:00,
2013-03-10 23:56:00,30.6,29.6,29.79,North,355,0.0,0.0,96,0.00,,OVC014,0.26,0.00,VWS V14.00,2013-03-11 04:56:00,
2013-03-10 23:57:00,30.6,29.3,29.79,NW,322,0.0,0.0,95,0.00,,OVC014,0.26,0.00,VWS V14.00,2013-03-11 04:57:00,
2013-03-10 23:58:00,30.6,29.3,29.79,North,355,0.0,0.0,95,0.00,,OVC014,0.26,0.00,VWS V14.00,2013-03-11 04:58:00,